GEFSSGP_con_probscp_054.txt.gz
Probability
0 0 0 0 0 0 0 0 0 0 0 0 0 0 0 0 0 0 1 3 7 13 12 7 4 2 3 7 13 18 21 20 16 13 9 5 3 3 3 2 1 0 0 0 0 0 0 0 0
0 0 0 0 0 0 0 0 0 0 0 0 0 0 0 0 0 0 3 7 10 13 12 8 5 5 5 10 20 30 37 38 31 23 14 7 4 3 3 3 1 0 0 0 0 0 0 0 0
0 0 0 0 0 0 0 0 0 0 0 0 0 0 0 0 0 0 6 13 16 14 11 9 9 8 8 13 29 46 56 59 52 39 24 11 5 3 3 3 2 0 0 0 0 0 0 0 0
0 0 0 0 0 0 0 0 0 0 0 0 0 0 0 0 0 1 9 17 19 14 9 8 10 9 9 15 32 51 62 64 61 50 32 15 6 3 3 2 1 0 0 0 0 0 0 0 0
0 0 0 0 0 0 0 0 0 0 0 0 0 0 0 0 0 4 11 18 18 12 5 4 6 7 7 14 29 47 57 58 57 49 32 15 6 3 2 1 0 0 0 0 0 0 0 0 0
0 0 0 0 0 0 0 0 0 0 0 0 0 0 0 2 4 8 13 16 13 7 2 1 2 3 4 10 23 39 48 48 46 39 26 12 4 1 1 0 0 0 0 0 0 0 0 0 0
0 0 0 0 0 0 0 0 0 0 0 0 0 0 2 8 15 17 16 14 9 3 0 0 0 1 2 6 15 27 35 36 35 29 18 8 2 0 0 0 0 0 0 0 0 0 0 0 0
0 0 0 0 0 0 0 0 0 0 0 0 0 0 5 18 29 30 21 14 7 3 1 0 0 0 0 2 7 13 20 23 23 18 10 4 1 0 0 0 0 0 0 0 0 0 0 0 0
0 0 0 0 0 0 0 0 0 0 0 0 0 0 7 26 42 42 31 19 11 6 2 1 0 0 0 0 1 4 8 11 11 8 4 1 0 0 0 0 0 0 0 0 0 0 1 0 0
0 0 0 0 0 0 0 0 0 0 0 0 0 0 7 25 44 49 40 27 17 10 5 1 0 0 1 1 1 1 2 3 2 2 1 0 0 0 0 0 0 0 0 0 0 0 0 0 0
0 0 0 0 0 0 0 0 0 0 0 0 0 1 5 17 34 42 37 28 19 13 7 2 0 1 2 2 2 2 1 0 0 1 1 0 0 0 0 0 0 0 0 0 0 0 0 0 0
0 0 0 0 0 0 0 0 0 0 0 0 0 2 3 9 19 25 26 22 17 12 6 1 0 1 2 2 2 2 1 0 2 4 3 1 1 1 1 1 1 0 0 0 0 0 0 0 0
0 0 0 0 0 0 0 0 0 0 0 0 0 1 2 4 9 14 18 18 16 11 5 1 0 0 1 3 4 2 1 0 2 5 4 2 1 2 2 2 1 0 0 0 0 0 0 0 0
0 0 0 0 0 0 0 0 0 0 0 0 0 0 1 1 4 11 19 20 17 13 8 3 1 0 1 4 5 3 1 0 2 4 4 3 3 4 5 4 4 2 1 1 1 1 1 0 0
0 0 0 0 0 0 0 0 0 0 0 0 0 1 2 1 3 10 19 22 20 16 11 6 3 2 3 4 4 3 1 1 2 4 5 6 8 10 11 11 11 11 10 11 11 8 5 4 3
0 0 0 0 0 0 0 0 0 0 0 0 2 4 6 6 7 10 16 21 21 19 17 11 6 6 6 5 5 5 7 8 8 10 12 14 17 21 23 25 29 31 30 30 28 23 17 13 10
0 0 0 0 0 0 0 0 0 0 1 3 5 9 15 20 21 19 18 18 20 23 24 20 15 15 14 12 12 15 19 22 22 23 25 27 30 35 40 45 50 50 49 48 43 36 28 21 16
0 0 0 0 0 0 0 1 1 2 5 9 14 19 26 35 38 34 27 22 23 27 31 32 31 33 32 29 28 30 33 37 37 36 37 39 43 50 56 61 62 61 59 55 47 37 29 22 17
0 0 0 0 0 0 2 5 8 11 15 22 28 32 36 43 48 45 38 32 32 34 38 44 49 55 58 54 50 49 48 48 47 44 42 43 47 53 59 62 63 60 54 48 40 31 24 18 14
0 0 0 0 0 1 3 8 15 22 28 37 44 48 49 52 55 52 45 41 41 43 48 55 61 70 76 74 69 65 60 56 53 47 41 37 37 40 44 49 51 48 40 34 29 23 19 13 9
0 0 0 0 0 0 2 7 13 21 31 45 56 60 60 60 60 57 52 49 50 54 58 64 68 72 77 79 78 73 67 60 53 44 35 28 25 27 30 33 35 33 28 24 21 17 13 8 4
0 0 0 0 0 0 0 3 8 13 23 39 53 59 59 58 57 57 57 56 58 61 65 69 71 71 73 77 77 72 65 56 45 35 26 19 16 17 18 20 21 21 18 15 12 9 6 3 1
0 0 0 0 0 0 0 1 5 9 16 28 38 43 45 45 47 51 54 55 58 62 64 68 69 71 74 76 73 66 55 42 32 25 19 13 10 8 8 8 9 9 9 6 4 2 1 0 0
0 0 0 0 0 0 0 2 7 11 13 19 23 25 28 31 35 41 43 43 47 52 56 59 60 64 69 69 63 55 42 29 22 19 14 8 5 2 2 1 1 2 2 1 1 0 0 0 0
0 0 0 0 0 0 0 3 10 13 13 13 14 13 15 20 24 27 27 26 28 34 41 45 46 48 51 49 44 38 30 22 19 15 9 4 1 1 0 0 0 0 0 0 0 0 0 0 0
0 0 0 0 0 0 1 5 11 12 10 9 8 8 10 12 12 12 11 10 12 17 23 27 27 27 26 25 22 19 16 15 13 8 3 1 0 0 0 0 0 0 0 0 0 0 0 0 0
0 0 0 0 0 0 1 5 9 8 7 6 5 5 6 5 4 3 2 2 3 6 9 10 10 9 8 8 7 6 6 6 5 2 1 0 0 0 0 0 0 0 0 0 0 0 0 0 0
0 0 0 0 0 0 1 3 5 7 7 6 4 3 2 1 1 0 0 0 0 1 1 1 2 1 1 1 1 1 1 1 0 0 0 0 0 0 0 0 0 0 0 0 0 0 0 0 0
0 0 0 0 0 0 0 1 3 7 9 7 3 1 0 0 0 0 0 0 0 0 0 0 0 0 0 0 0 0 0 0 0 0 0 0 0 0 0 0 0 0 0 0 0 0 0 0 0
0 0 0 0 0 0 0 1 3 7 10 7 2 0 0 0 0 0 0 0 0 0 0 0 0 0 0 0 0 0 0 0 0 0 0 0 0 0 0 0 0 0 0 0 0 0 0 0 0

GEFSSGP_con_probscp_060.txt.gz
Probability
0 0 0 0 0 0 0 0 0 0 0 0 0 0 1 1 1 1 9 38 76 88 81 74 59 33 13 4 0 0 0 0 0 0 0 0 0 0 0 0 0 0 0 0 0 0 0 0 0
0 0 0 0 0 0 0 0 0 0 0 0 0 0 1 2 1 4 19 51 78 83 77 75 66 42 19 6 1 0 0 0 0 0 0 0 0 0 0 0 0 0 0 0 0 0 0 0 0
0 0 0 0 0 0 0 0 0 0 0 0 0 0 2 2 3 12 34 62 78 75 72 76 74 56 31 13 3 0 0 0 0 0 0 0 0 0 0 0 0 0 0 0 0 0 0 0 0
0 0 0 0 0 0 0 0 0 0 0 0 0 3 5 5 9 20 37 57 70 68 65 71 76 66 46 24 9 3 2 2 2 2 1 0 0 0 0 0 0 0 0 0 0 0 0 0 0
0 0 0 0 0 0 0 0 0 0 0 0 2 7 12 11 13 20 26 40 57 60 55 61 71 67 52 33 18 10 8 8 7 3 1 1 0 0 0 0 0 0 0 0 0 0 0 0 0
0 0 0 0 0 0 0 0 0 0 0 0 3 11 17 15 11 11 14 27 47 54 47 48 57 58 49 37 27 21 17 14 10 6 3 2 1 0 0 0 0 0 0 0 0 0 0 0 0
0 0 0 0 0 0 0 0 0 0 0 0 3 12 21 18 8 5 10 23 40 47 39 33 37 42 40 35 30 27 22 16 11 8 6 3 1 0 0 0 0 0 0 0 0 0 0 0 0
0 0 0 0 0 0 0 0 0 0 0 0 2 12 22 19 9 6 11 22 36 41 32 21 21 26 27 26 24 22 18 13 9 7 5 3 1 0 0 0 0 0 0 0 0 0 0 0 0
0 0 0 0 0 0 0 0 0 0 0 0 4 14 20 17 8 6 12 25 37 39 27 14 12 15 16 16 16 14 11 8 5 3 2 1 0 0 0 0 0 0 0 0 0 0 0 0 0
0 0 0 0 0 0 0 0 0 0 0 1 7 17 21 14 7 6 13 28 41 40 25 9 5 7 9 12 13 9 5 3 1 0 0 0 0 0 0 0 1 1 0 0 0 0 0 0 0
0 0 0 0 0 0 0 0 0 0 0 1 6 16 20 14 7 7 14 28 40 39 22 8 3 3 6 11 11 7 2 0 0 1 1 0 0 0 0 0 1 1 0 0 0 0 0 0 0
0 0 0 0 0 0 0 0 0 0 0 0 4 11 16 12 8 9 15 26 35 33 21 12 9 9 13 16 12 5 1 0 1 1 1 1 1 0 0 2 3 3 2 2 1 1 1 2 1
0 0 0 0 0 0 0 0 0 0 0 0 2 7 11 10 9 12 20 31 39 35 26 21 22 24 29 30 22 10 5 4 3 2 2 1 1 1 1 5 9 9 8 9 8 7 10 10 9
0 0 0 0 0 0 0 0 0 0 0 0 1 3 5 8 13 20 31 44 53 51 42 38 42 45 47 46 37 22 14 11 9 10 8 3 3 5 9 15 20 18 19 22 23 24 29 26 21
0 0 0 0 0 0 0 0 0 0 0 0 0 0 3 8 15 27 45 60 70 71 65 60 61 65 64 57 46 32 22 18 21 26 26 18 16 23 30 34 35 33 34 41 45 47 50 45 36
0 0 0 0 0 0 0 0 0 0 0 0 0 0 4 11 20 33 53 71 84 87 84 76 71 75 76 66 53 40 32 33 40 49 52 45 42 49 57 57 54 55 57 61 65 66 67 61 53
0 0 0 0 0 0 0 1 1 2 3 3 4 5 12 22 31 43 59 77 91 96 93 84 78 79 79 73 65 56 51 55 62 69 73 71 67 69 75 75 74 75 76 77 76 77 75 67 61
0 0 0 0 0 0 1 4 7 10 12 13 16 20 28 39 48 57 69 83 94 98 95 88 83 82 80 78 77 73 70 73 77 78 80 81 80 81 83 84 83 83 82 79 77 73 66 57 52
0 0 0 0 0 1 4 11 17 21 25 29 32 39 48 56 64 71 79 89 96 97 93 87 84 84 84 84 84 81 79 78 78 75 74 76 78 80 81 80 78 76 73 68 63 55 46 39 36
0 0 0 0 0 1 7 16 25 32 37 40 45 52 59 67 74 79 84 90 94 95 92 87 86 87 88 88 86 83 80 78 74 67 62 61 62 63 64 66 65 60 55 49 42 36 30 25 23
0 0 0 0 0 1 6 14 24 34 41 46 52 56 60 66 71 75 77 80 85 87 88 87 86 87 89 87 85 81 79 78 71 58 48 42 39 39 41 43 42 38 35 32 27 24 21 18 15
0 0 0 0 0 1 2 7 15 27 40 49 55 56 55 56 59 61 65 68 71 74 76 78 78 81 84 84 81 78 76 71 59 45 33 25 21 20 20 21 21 19 19 19 17 15 14 11 9
0 0 0 0 0 0 0 2 9 22 38 51 57 56 53 49 48 50 53 56 59 60 62 64 66 70 74 76 74 72 67 54 41 29 20 15 12 10 9 9 9 9 10 10 10 9 8 6 4
0 0 0 0 0 0 0 4 14 26 38 49 54 52 47 41 37 36 37 39 43 46 48 50 53 57 60 62 62 61 52 39 27 19 13 9 7 5 4 4 4 4 4 4 4 3 3 2 1
0 0 0 0 0 0 2 12 28 37 39 42 41 36 30 25 20 18 19 21 25 29 32 36 39 42 44 45 45 42 35 25 17 12 9 6 4 2 1 1 1 1 1 1 1 1 1 0 0
0 0 0 0 0 2 11 30 46 46 37 29 23 17 13 10 8 7 8 9 11 13 17 21 24 24 25 26 25 21 17 12 8 6 4 3 2 1 0 0 0 0 0 0 0 0 0 0 0
0 0 0 0 0 2 16 39 50 45 32 18 11 7 5 4 3 3 3 3 4 5 7 9 9 9 9 9 8 7 6 4 3 2 1 1 1 0 0 0 0 0 0 0 0 0 0 0 0
0 0 0 0 0 1 8 22 36 37 26 13 6 4 3 2 1 1 1 1 1 1 1 2 2 1 1 1 0 1 1 1 1 1 0 0 0 0 0 0 0 0 0 0 0 0 0 0 0
0 0 0 0 0 0 1 5 17 27 21 10 5 3 2 1 0 0 0 0 0 0 0 0 0 0 0 0 0 0 0 0 0 0 0 0 0 0 0 0 0 0 0 0 0 0 0 0 0
0 0 0 0 0 0 0 2 12 21 18 8 4 3 1 0 0 0 0 0 0 0 0 0 0 0 0 0 0 0 0 0 0 0 0 0 0 0 0 0 0 0 0 0 0 0 0 0 0

GEFSSGP_con_probscp_066.txt.gz
Probability
0 0 0 0 0 0 0 0 0 0 0 0 0 0 0 0 0 0 1 6 13 16 12 10 8 5 1 0 0 0 1 2 2 2 2 2 2 2 1 0 0 0 0 0 0 0 0 0 0
0 0 0 0 0 0 0 0 0 0 0 0 0 0 0 0 0 0 3 11 19 21 16 11 10 8 3 1 1 0 0 1 1 1 1 1 1 1 0 0 0 0 0 0 0 0 0 0 0
0 0 0 0 0 0 0 0 0 0 0 0 0 0 0 0 1 2 9 22 31 28 20 15 15 13 7 4 3 1 0 0 0 0 0 0 0 0 0 0 0 0 0 0 0 0 0 0 0
0 0 0 0 0 0 0 0 0 0 0 0 0 2 3 5 9 12 19 30 36 32 23 19 19 16 12 8 5 3 1 0 0 0 0 0 0 0 0 0 0 0 0 0 0 0 0 0 0
0 0 0 0 0 0 0 0 0 0 0 0 2 5 8 13 22 25 25 28 34 33 25 19 18 17 14 12 9 6 3 1 0 0 0 0 0 0 0 0 0 0 0 0 0 0 0 0 0
0 0 0 0 0 0 0 0 0 0 0 1 4 7 9 15 24 26 25 27 32 35 28 20 16 14 14 15 14 10 6 3 1 0 0 0 0 0 0 0 0 0 0 0 0 0 0 0 0
0 0 0 0 0 0 0 0 0 0 0 1 4 8 8 11 17 22 26 31 35 37 32 23 15 12 12 14 15 13 9 5 2 0 0 0 0 0 0 0 0 0 0 0 0 0 0 0 0
0 0 0 0 0 0 0 0 0 0 0 1 3 6 7 12 20 27 32 35 36 35 33 26 17 13 11 12 13 12 9 6 3 1 0 0 0 0 0 0 0 0 0 0 0 0 0 0 0
0 0 0 0 0 0 0 0 0 0 0 0 2 5 11 20 32 39 41 39 35 32 30 26 20 16 14 13 12 10 8 6 4 3 1 0 0 0 0 0 0 0 0 0 0 0 0 0 0
0 0 0 0 0 0 0 0 0 0 0 1 3 8 16 28 38 43 45 43 37 30 26 22 20 18 17 16 15 12 8 6 4 4 2 0 0 0 0 0 0 0 0 0 0 0 0 0 0
0 0 0 0 0 0 0 0 0 0 1 2 7 12 17 26 34 39 43 43 37 31 25 19 17 16 16 17 18 15 9 5 4 3 1 0 0 0 0 0 0 0 0 0 0 0 0 0 0
0 0 0 0 0 0 0 0 0 0 1 4 9 14 17 19 24 31 40 43 38 32 26 19 14 12 13 14 15 13 9 5 2 1 0 0 0 0 0 0 0 0 0 0 0 0 0 0 0
0 0 0 0 0 0 0 0 0 0 2 4 9 14 14 14 18 27 41 50 46 36 27 21 15 11 9 9 9 8 5 3 1 0 0 0 0 0 0 0 0 0 0 0 0 0 0 0 0
0 0 0 0 0 0 0 0 0 0 1 3 7 8 9 11 17 28 46 60 57 43 30 22 15 10 7 5 3 2 2 1 0 0 0 0 0 0 0 0 0 0 0 0 0 0 0 0 0
0 0 0 0 0 0 0 0 1 1 2 3 5 7 8 12 21 33 50 66 67 53 36 23 14 10 9 5 2 1 0 0 0 0 0 0 0 0 0 0 0 0 0 0 0 0 0 0 0
0 0 0 0 0 0 0 2 4 4 3 4 7 11 15 18 26 37 52 68 74 66 49 35 28 24 21 15 8 3 2 1 1 0 0 0 0 0 0 1 1 1 0 0 0 0 0 0 0
0 0 0 0 0 0 1 5 8 9 8 10 13 18 23 27 34 42 54 68 78 75 65 58 54 50 45 36 24 15 11 9 5 3 2 2 2 1 1 2 3 2 1 0 0 0 0 0 0
0 0 0 0 0 1 4 8 14 16 16 19 23 27 33 38 44 50 58 68 79 80 75 72 72 70 65 57 48 36 27 20 14 9 6 5 6 4 2 2 4 4 4 2 0 0 0 0 0
0 0 0 0 1 3 9 15 21 24 25 27 31 37 44 50 53 58 62 66 73 75 72 73 75 75 72 68 63 53 39 27 20 14 11 10 9 7 4 3 4 4 5 3 1 0 0 0 0
0 0 0 1 2 6 13 21 26 29 31 33 37 44 51 55 57 60 61 60 61 60 60 63 68 70 71 69 63 53 41 30 21 15 12 11 11 9 7 6 4 4 4 3 1 0 0 0 0
0 0 0 1 3 6 11 18 25 31 34 37 40 44 48 51 53 54 53 50 48 47 46 48 53 60 65 65 59 49 40 31 23 15 10 9 9 8 8 7 5 4 3 3 2 2 1 1 0
0 0 0 1 2 4 6 10 18 27 34 38 39 40 39 40 40 40 39 38 36 36 35 33 35 43 51 55 53 47 37 28 21 13 8 5 5 5 5 5 5 4 3 2 2 3 2 1 0
0 0 0 0 1 1 2 4 9 18 27 33 34 31 28 25 22 22 23 23 23 24 25 23 24 28 34 40 43 38 29 20 14 9 6 4 3 3 3 3 3 2 1 1 1 2 2 1 1
0 0 0 0 0 0 1 1 4 11 19 25 24 20 17 13 9 9 10 10 10 12 15 18 18 21 23 26 27 24 18 12 9 6 4 3 3 3 3 2 1 0 0 0 0 1 1 1 0
0 0 0 0 0 0 0 1 4 10 17 19 15 11 9 7 5 4 4 4 4 6 9 12 13 14 15 15 16 14 11 8 6 4 3 3 3 2 1 1 0 0 0 0 0 0 0 0 0
0 0 0 0 0 0 0 1 4 10 15 13 9 6 5 4 4 3 3 3 3 4 6 7 7 8 8 9 9 8 6 5 3 3 2 2 2 1 0 0 0 0 0 0 0 0 0 0 0
0 0 0 0 0 0 0 1 3 7 8 6 4 4 3 3 2 2 1 1 1 3 4 4 3 4 4 4 4 3 2 1 1 1 1 1 1 0 0 0 0 0 0 0 0 0 0 0 0
0 0 0 0 0 0 0 0 1 3 3 3 2 2 1 1 1 1 0 0 0 1 1 1 1 1 2 1 1 0 0 0 0 0 0 0 0 0 0 0 0 0 0 0 0 0 0 0 0
0 0 0 0 0 0 0 0 1 2 2 1 1 1 0 0 0 0 0 0 0 0 0 0 0 0 0 0 0 0 0 0 0 0 0 0 0 0 0 0 0 0 0 0 0 0 0 0 0
0 0 0 0 0 0 0 0 1 2 1 1 0 0 0 0 0 0 0 0 0 0 0 0 0 0 0 0 0 0 0 0 0 0 0 0 0 0 0 0 0 0 0 0 0 0 0 0 0

GEFSSGP_con_probscp_072.txt.gz
Probability
0 0 0 0 0 0 0 0 0 0 0 0 0 0 0 0 0 0 0 1 3 5 5 4 4 7 10 13 15 17 16 14 11 10 9 7 3 0 0 0 0 0 0 0 0 0 0 0 0
0 0 0 0 0 0 0 0 0 0 0 0 0 0 1 2 2 1 1 5 9 10 8 4 3 6 10 13 15 15 13 11 10 9 8 6 3 1 0 0 0 0 0 0 0 0 0 0 0
0 0 0 0 0 0 0 0 0 0 0 0 0 1 3 4 4 2 4 12 19 18 12 6 5 8 12 15 16 15 14 11 9 8 8 6 4 2 1 0 0 0 0 0 0 0 0 0 0
0 0 0 0 0 0 0 0 0 0 0 1 1 3 5 6 5 4 8 18 26 25 16 10 10 13 17 20 21 22 21 17 13 9 7 5 3 2 1 0 0 0 0 0 0 0 0 0 0
0 0 0 0 0 0 0 0 0 0 1 2 3 4 6 7 7 5 8 18 29 30 22 16 16 18 21 25 30 31 30 26 20 13 8 5 3 3 1 0 0 0 0 0 0 0 0 0 0
0 0 0 0 0 0 0 0 0 0 1 2 4 5 7 12 13 10 10 19 30 34 30 27 24 21 23 29 35 38 38 34 25 17 10 5 3 3 2 1 0 0 0 0 0 0 0 0 0
0 0 0 0 0 0 0 0 0 0 0 2 5 8 10 16 21 19 19 25 33 40 40 37 31 26 25 29 33 39 41 36 26 17 10 5 3 3 3 1 0 0 0 0 0 0 0 0 0
0 0 0 0 0 0 0 0 0 0 0 1 5 9 14 22 32 35 35 34 37 41 45 43 36 30 28 27 27 30 33 29 20 12 8 5 4 3 3 2 0 0 0 0 0 0 0 0 0
0 0 0 0 0 0 0 0 0 0 0 1 5 11 20 34 46 50 47 40 35 36 42 42 37 31 28 27 25 26 26 22 14 8 7 6 4 2 2 1 0 0 0 0 0 0 0 0 0
0 0 0 0 0 0 0 0 0 0 0 0 5 16 29 44 54 55 49 38 29 30 36 38 34 30 29 30 31 31 30 23 14 9 7 4 2 1 1 0 0 0 0 0 0 0 0 0 0
0 0 0 0 0 0 0 0 0 0 0 0 6 21 40 50 53 53 47 37 28 25 30 33 31 29 30 33 36 36 35 29 18 11 6 2 0 0 0 0 0 0 0 0 0 0 0 0 0
0 0 0 0 0 0 0 0 0 0 0 0 6 24 46 55 53 49 44 37 30 24 25 30 29 28 30 32 34 34 34 29 21 12 6 1 0 0 0 0 0 0 0 0 0 0 0 0 0
0 0 0 0 0 0 0 0 0 0 0 1 7 24 44 53 52 46 40 35 29 25 25 30 32 29 28 29 29 29 29 25 19 12 5 1 0 0 0 0 0 0 0 0 0 0 0 0 0
0 0 0 0 0 0 0 0 0 1 2 3 10 24 36 44 45 42 39 34 28 27 28 32 34 31 28 28 26 25 24 21 15 9 4 1 0 0 0 0 0 0 0 0 0 0 0 0 0
0 0 0 0 0 0 0 0 2 3 4 5 12 23 32 35 36 38 36 33 30 30 32 34 33 30 27 25 23 21 19 15 10 5 3 1 0 0 0 0 0 0 0 0 0 0 0 0 0
0 0 0 0 0 0 0 1 3 5 5 7 12 22 29 30 30 32 34 34 32 34 38 41 38 32 26 23 20 18 14 9 4 2 1 0 0 0 0 1 1 0 0 0 0 0 0 0 0
0 0 0 0 0 0 0 1 4 6 7 9 14 20 26 28 29 31 36 39 38 39 44 46 44 38 31 26 21 17 12 5 1 0 0 1 1 1 1 1 1 0 0 0 0 0 0 0 0
0 0 0 0 0 0 0 1 3 5 8 11 15 19 24 27 30 33 39 45 45 44 45 47 45 42 40 35 25 17 9 3 0 0 0 1 2 1 1 1 1 1 0 0 0 0 0 0 0
0 0 0 0 0 0 0 1 3 6 8 11 14 18 23 27 30 35 41 47 51 49 46 47 44 42 43 40 29 18 10 4 1 0 0 1 2 1 1 1 2 1 1 1 1 1 1 0 0
0 0 0 0 0 0 0 1 4 7 9 12 15 18 21 24 28 34 40 46 50 49 46 45 44 42 41 37 29 20 13 6 2 1 1 0 0 0 0 1 1 1 1 2 2 2 1 0 0
0 0 0 0 0 0 0 1 3 6 9 12 16 18 21 23 25 30 36 39 39 39 39 40 40 40 37 31 25 20 15 9 5 3 1 0 0 0 0 0 0 0 1 1 1 1 1 0 0
0 0 0 0 0 0 0 0 1 3 5 8 12 15 18 20 23 25 27 27 25 26 28 29 31 33 31 26 22 19 16 11 7 4 2 0 0 0 0 0 0 0 0 0 0 0 0 0 0
0 0 0 0 0 0 0 0 0 1 2 5 6 9 12 15 17 18 16 15 16 17 19 21 23 25 24 20 18 17 15 11 7 4 2 1 0 0 0 1 0 0 0 0 0 0 0 0 0
0 0 0 0 0 0 0 0 0 0 1 3 3 4 6 8 10 10 9 8 9 11 14 17 19 20 18 15 14 14 11 7 4 3 3 2 1 0 0 0 0 0 0 0 0 0 0 0 0
0 0 0 0 0 0 0 0 0 0 0 1 1 2 3 4 4 4 5 4 5 6 9 12 15 15 14 12 11 10 8 5 3 3 3 2 1 0 0 0 0 0 0 0 0 0 0 0 0
0 0 0 0 0 0 0 1 1 1 0 0 0 1 1 1 1 2 2 3 3 4 5 7 9 9 8 8 7 6 4 3 2 2 2 1 0 0 0 0 0 0 0 0 0 0 0 0 0
0 0 0 0 0 0 0 2 3 2 1 0 0 0 0 0 0 1 1 1 2 2 3 4 4 4 4 4 4 3 2 1 1 1 1 0 0 0 0 0 0 0 0 0 0 0 0 0 0
0 0 0 0 0 0 0 1 2 2 1 0 0 0 0 0 0 0 0 0 1 1 1 2 2 2 2 2 2 1 0 0 0 0 0 0 0 0 0 0 0 0 0 0 0 0 0 0 0
0 0 0 0 0 0 0 0 0 1 1 0 0 0 0 0 0 0 0 0 0 0 0 1 1 1 1 1 1 0 0 0 0 0 0 0 0 0 0 0 0 0 0 0 0 0 0 0 0
0 0 0 0 0 0 0 0 0 0 0 0 0 0 0 0 0 0 0 0 0 0 0 0 0 0 0 0 0 0 0 0 0 0 0 0 0 0 0 0 0 0 0 0 0 0 0 0 0

GEFSSGP_con_probscp_078.txt.gz
Probability
0 0 0 0 0 0 0 0 0 0 0 0 0 0 0 0 1 3 5 5 12 31 46 47 49 46 32 23 25 29 27 20 13 7 4 2 0 0 0 0 0 0 0 0 0 0 0 0 0
0 0 0 0 0 0 0 0 0 0 0 0 0 0 0 0 2 5 6 7 15 33 49 55 60 60 50 40 41 46 45 37 28 18 10 5 1 0 0 0 0 0 0 0 0 0 0 0 0
0 0 0 0 0 0 0 0 0 0 0 0 0 0 0 1 3 7 9 11 20 38 54 66 72 73 67 60 57 59 59 53 46 36 24 12 4 0 0 0 0 0 0 0 0 0 0 0 0
0 0 0 0 0 0 0 0 0 0 0 0 0 0 1 2 4 8 12 15 25 40 55 69 78 77 72 66 62 62 62 60 56 47 34 21 10 3 2 1 0 0 0 0 0 0 0 0 0
0 0 0 0 0 0 0 0 0 0 0 0 0 1 3 6 9 11 13 16 27 42 53 65 75 74 68 64 63 64 65 64 60 51 38 25 15 9 5 2 1 0 0 0 0 0 0 0 0
0 0 0 0 0 0 0 0 0 0 0 0 0 2 5 10 15 17 16 18 28 43 54 62 66 64 61 62 63 66 67 67 63 52 37 25 17 11 7 4 2 1 0 0 0 0 0 0 0
0 0 0 0 0 0 0 0 0 0 0 1 1 3 7 13 21 23 21 22 29 41 52 57 54 52 52 54 58 63 66 67 64 52 36 23 14 8 5 5 4 2 1 0 1 1 0 0 0
0 0 0 0 0 0 0 0 0 0 1 2 3 5 10 19 28 31 31 33 36 40 48 52 50 46 42 42 47 54 59 61 58 49 35 20 9 4 2 4 5 4 1 0 1 1 1 0 0
0 0 0 0 0 0 0 0 0 0 1 2 3 6 14 26 35 39 44 49 50 50 51 53 53 48 39 37 40 43 45 45 40 35 27 15 5 1 2 5 7 5 1 1 1 2 1 0 0
0 0 0 0 0 0 0 0 0 0 0 1 3 7 17 28 36 41 47 55 61 61 58 57 56 54 47 44 46 39 33 29 23 20 18 12 7 5 4 8 9 5 2 2 2 2 1 0 0
0 0 0 0 0 0 0 0 0 0 0 0 2 6 15 23 28 33 39 49 60 63 59 56 57 57 55 55 55 46 37 32 25 23 23 20 19 13 8 7 7 4 2 1 2 2 1 1 1
0 0 0 0 0 0 0 0 0 0 0 1 2 4 10 16 18 23 33 46 55 55 52 51 54 58 62 63 62 57 52 46 41 43 41 35 29 22 14 10 7 4 1 1 2 2 2 1 2
0 0 0 0 0 0 0 0 0 0 0 1 2 3 6 10 13 21 34 47 52 49 46 48 54 62 69 72 70 68 66 60 56 56 53 43 34 28 24 19 13 6 3 3 3 3 2 1 1
0 0 0 0 0 0 0 0 0 0 0 1 2 5 8 12 15 23 37 50 56 56 54 54 58 65 73 76 75 73 73 68 62 59 55 45 37 34 32 25 17 9 7 8 7 5 3 1 1
0 0 0 0 0 0 0 0 0 0 1 2 4 9 16 20 24 29 41 54 62 65 64 61 57 59 67 73 72 71 71 68 64 61 56 48 41 42 39 30 21 16 16 18 16 12 8 5 4
0 0 0 0 0 0 0 1 1 1 2 4 7 13 20 26 31 36 43 53 62 67 68 63 54 51 58 66 68 68 68 68 66 63 57 51 49 49 48 40 31 27 29 28 25 20 16 13 10
0 0 0 0 0 0 0 1 2 4 5 7 11 16 21 26 31 37 40 47 56 65 68 64 56 51 56 63 66 67 69 70 66 61 57 55 54 53 51 47 39 36 36 32 28 27 25 19 15
0 0 0 0 0 0 0 1 3 5 7 9 13 17 20 23 29 36 38 41 50 59 63 60 55 54 58 63 65 64 66 67 62 57 56 55 53 52 53 50 44 41 39 35 32 32 29 21 15
0 0 0 0 0 0 0 0 3 6 8 9 12 16 16 19 28 38 41 41 47 55 56 51 50 52 56 59 60 59 59 57 52 49 48 48 47 49 50 49 47 45 43 40 35 32 27 20 16
0 0 0 0 0 0 0 1 3 6 8 9 12 14 14 18 27 38 43 44 48 54 53 49 48 51 53 52 53 53 50 45 40 37 36 36 38 40 40 40 41 41 39 36 31 28 25 21 18
0 0 0 0 0 0 0 1 3 5 5 6 9 13 16 18 23 31 40 44 47 51 52 51 51 52 53 51 50 48 43 37 32 26 23 22 24 25 26 28 30 29 26 24 23 23 23 21 19
0 0 0 0 0 0 0 0 2 3 2 2 6 12 15 16 20 26 33 39 43 46 50 52 53 53 52 52 50 46 39 32 25 18 13 13 14 14 13 15 17 17 15 14 14 15 16 17 17
0 0 0 0 0 0 0 0 1 2 1 1 5 9 11 14 20 26 29 33 38 43 46 50 53 54 52 51 49 46 37 26 18 13 9 9 9 8 6 6 8 9 9 8 8 8 9 11 12
0 0 0 0 0 0 0 0 1 3 2 1 3 6 7 11 19 24 26 28 33 39 42 43 46 48 49 48 45 40 30 19 12 9 8 8 8 7 5 5 6 6 6 6 6 6 6 7 7
0 0 0 0 0 0 0 0 3 6 4 2 2 4 6 9 13 18 20 22 26 32 34 34 35 37 38 38 35 29 22 13 8 7 7 8 8 7 5 4 5 5 5 4 4 3 3 3 2
0 0 0 0 0 0 0 1 5 7 5 3 2 3 4 6 8 11 14 15 18 21 24 24 24 24 23 23 20 17 13 9 6 6 5 5 5 5 3 2 2 2 2 1 1 1 1 1 0
0 0 0 0 0 0 0 1 4 5 4 3 2 2 3 3 5 6 8 9 10 12 14 16 15 14 13 11 10 8 7 5 4 3 3 2 2 1 1 0 0 0 0 0 0 0 0 0 0
0 0 0 0 0 0 0 0 1 2 2 2 1 1 2 3 3 3 3 4 5 6 8 9 9 8 7 6 5 4 3 3 2 1 1 0 0 0 0 0 0 0 0 0 0 0 0 0 0
0 0 0 0 0 0 0 0 0 1 2 2 1 1 1 2 2 1 1 1 2 3 5 6 6 5 5 3 2 1 1 1 1 0 0 0 0 0 0 0 0 0 0 0 0 0 0 0 0
0 0 0 0 0 0 0 0 0 1 2 2 1 0 0 1 1 0 0 0 1 2 3 4 4 4 2 1 0 0 0 0 0 0 0 0 0 0 0 0 0 0 0 0 0 0 0 0 0

GEFSSGP_con_probscp_084.txt.gz
Probability
0 0 0 0 0 0 0 0 0 0 0 0 0 0 0 3 9 12 9 22 56 77 74 70 65 49 26 8 2 1 1 0 0 0 0 0 0 0 0 0 0 0 0 0 0 0 0 0 0
0 0 0 0 0 0 0 0 0 0 0 0 0 0 1 4 10 12 11 24 54 73 72 71 70 58 38 18 6 2 1 0 0 0 1 1 0 0 0 0 0 0 0 0 0 0 0 0 0
0 0 0 0 0 0 0 0 0 0 0 0 0 1 3 7 12 15 15 27 51 67 72 77 79 72 58 37 17 8 6 4 2 2 4 3 1 0 0 0 0 0 0 0 0 0 0 0 0
0 0 0 0 0 0 0 0 0 0 0 0 1 4 8 11 16 20 19 28 49 65 74 82 85 83 74 58 39 25 19 14 8 6 6 5 3 2 0 0 0 0 0 0 0 0 0 0 0
0 0 0 0 0 0 0 0 0 0 0 0 2 10 17 18 21 24 19 25 46 66 76 83 86 86 83 75 61 46 39 32 22 14 11 9 8 5 2 1 1 0 0 0 0 0 0 0 0
0 0 0 0 0 0 0 0 0 0 0 0 4 15 25 27 28 26 19 22 43 65 78 83 85 84 82 79 73 64 56 48 40 30 22 16 13 8 4 2 2 1 0 0 0 0 0 0 0
0 0 0 0 0 0 0 0 0 0 0 0 3 14 30 38 36 29 19 22 44 65 76 81 80 77 74 74 75 72 65 58 51 43 31 21 14 9 4 3 2 1 0 0 0 0 0 0 0
0 0 0 0 0 0 0 0 0 0 0 0 2 13 34 47 43 32 23 26 46 67 74 74 71 68 64 63 68 71 68 61 51 39 28 19 12 7 3 2 2 1 0 0 0 0 0 0 0
0 0 0 0 0 0 0 0 0 0 0 0 3 16 37 49 43 36 33 38 53 69 70 61 56 56 52 52 60 64 60 53 41 27 18 14 7 3 2 3 5 2 0 0 0 0 0 0 0
0 0 0 0 0 0 0 0 0 0 0 0 5 17 35 44 42 39 42 50 61 69 63 48 44 47 44 47 59 57 47 39 28 17 12 8 4 3 6 12 14 6 0 0 0 0 0 0 0
0 0 0 0 0 0 0 0 0 0 0 0 4 14 26 35 37 39 45 55 64 68 59 46 45 47 45 52 62 54 44 37 26 20 19 11 4 6 15 24 21 9 2 1 1 0 0 0 0
0 0 0 0 0 0 0 0 0 0 0 0 3 9 19 26 30 35 45 57 67 70 63 53 54 54 53 61 65 54 48 45 38 38 36 22 10 12 23 30 22 9 3 2 2 1 0 1 1
0 0 0 0 0 0 0 0 0 0 1 2 4 8 15 20 25 34 49 65 75 78 72 63 62 63 63 68 69 58 54 51 51 55 50 33 20 20 31 35 25 11 6 7 5 2 1 3 4
0 0 0 0 0 0 0 0 0 1 2 4 6 9 15 19 24 36 53 69 79 82 78 72 70 70 71 73 72 65 60 59 61 63 57 41 32 35 42 43 33 19 17 20 16 10 9 10 12
0 0 0 0 0 0 0 0 0 1 3 6 7 11 17 21 26 38 54 69 79 82 80 78 75 74 74 74 73 68 66 66 68 67 62 51 46 50 54 51 42 32 33 38 34 25 22 23 23
0 0 0 0 0 0 0 0 1 2 5 8 8 10 16 22 29 40 54 68 76 79 81 79 77 77 76 75 74 71 69 69 70 68 64 55 50 55 59 55 49 45 45 45 41 34 32 32 31
0 0 0 0 0 0 0 1 3 5 7 10 10 10 16 24 32 41 55 69 75 76 77 76 77 78 76 74 74 72 69 68 68 64 60 53 49 51 56 56 55 55 52 45 39 37 37 34 32
0 0 0 0 0 0 1 2 4 7 9 11 12 13 18 26 35 45 57 66 71 73 73 73 75 76 74 71 70 70 67 63 61 57 54 53 50 50 52 55 57 58 55 46 40 37 34 30 28
0 0 0 0 0 0 1 3 5 7 9 12 15 17 22 30 39 48 57 62 66 70 72 72 72 72 70 65 63 64 61 54 51 49 50 52 52 50 49 52 56 58 56 49 41 35 29 24 23
0 0 0 0 0 0 1 4 5 6 10 15 19 21 26 34 40 46 51 54 59 64 68 69 68 66 64 59 54 53 50 43 39 38 40 43 46 46 45 46 51 54 52 46 40 34 27 20 17
0 0 0 0 0 0 1 3 6 10 15 20 21 21 26 33 38 40 42 46 50 56 60 62 61 61 59 53 46 41 37 32 27 26 27 30 33 36 36 35 38 41 40 36 34 31 25 17 13
0 0 0 0 0 0 0 2 7 14 19 20 18 20 25 30 33 34 36 40 43 46 50 53 55 56 56 50 43 36 29 23 19 18 18 19 20 22 22 22 23 25 25 24 21 20 18 14 10
0 0 0 0 0 0 0 1 6 13 18 18 17 19 23 26 29 33 35 36 37 39 42 44 48 51 51 49 45 38 28 18 14 11 12 12 12 12 12 12 13 13 14 14 12 12 13 12 10
0 0 0 0 0 0 0 0 4 10 15 17 17 18 20 24 29 34 36 36 36 37 38 39 41 42 43 43 41 36 25 15 9 6 6 7 8 9 8 8 8 8 8 9 9 9 9 9 9
0 0 0 0 0 0 0 0 4 8 12 14 15 15 18 23 28 30 31 33 34 35 37 38 37 35 34 34 32 26 18 10 5 4 5 6 7 7 7 6 6 6 6 6 7 7 6 5 5
0 0 0 0 0 0 0 0 3 7 10 11 12 13 16 19 20 20 21 24 26 29 32 33 31 29 27 26 24 19 12 7 3 3 5 6 5 5 5 5 5 5 5 4 4 4 3 2 1
0 0 0 0 0 0 0 0 3 6 7 9 10 13 16 15 12 12 13 14 15 18 22 23 23 21 19 18 16 11 6 3 1 1 3 3 3 2 2 2 3 3 2 1 1 1 1 0 0
0 0 0 0 0 0 0 1 3 4 4 6 9 14 16 13 9 7 8 8 8 9 12 14 13 12 11 9 7 4 2 0 0 0 1 1 1 0 0 0 1 1 0 0 0 0 0 0 0
0 0 0 0 0 0 0 1 2 2 2 5 9 13 14 11 7 4 4 3 2 3 5 8 8 7 6 4 3 1 0 0 0 0 0 0 0 0 0 0 0 0 0 0 0 0 0 0 0
0 0 0 0 0 0 0 1 1 1 2 4 9 11 10 8 5 2 1 1 0 0 2 5 6 6 4 2 1 1 0 0 0 0 0 0 0 0 0 0 0 0 0 0 0 0 0 0 0

GEFSSGP_con_probscp_090.txt.gz
Probability
0 0 0 0 0 0 0 0 0 0 0 0 2 4 5 4 2 1 1 5 11 16 17 16 16 14 11 5 2 3 3 2 3 5 6 6 5 5 6 3 1 0 0 0 0 0 0 0 0
0 0 0 0 0 0 0 0 0 0 0 0 4 8 9 10 8 4 5 12 20 23 23 23 22 19 15 9 4 4 4 4 4 6 6 7 6 5 4 3 1 0 0 0 0 0 0 0 0
0 0 0 0 0 0 0 0 0 0 0 2 6 11 12 14 13 8 11 24 30 31 31 33 33 28 22 16 9 5 4 4 5 5 6 6 6 4 3 2 1 0 0 0 0 0 0 0 0
0 0 0 0 0 0 0 0 0 0 1 4 10 14 16 17 18 17 22 34 38 36 38 44 45 39 29 21 14 9 5 4 4 4 4 4 4 2 1 1 0 0 0 0 0 0 0 0 0
0 0 0 0 0 0 0 0 0 0 1 6 13 19 23 27 30 30 32 39 43 43 47 54 56 47 35 26 21 16 10 7 6 5 4 3 3 1 0 0 0 0 0 0 0 0 0 0 0
0 0 0 0 0 0 0 0 0 0 1 6 14 23 29 34 38 39 39 40 45 53 60 65 63 52 41 34 29 24 20 18 15 11 7 4 2 1 0 0 0 0 0 0 0 0 0 0 0
0 0 0 0 0 0 0 0 0 0 2 7 16 25 29 32 37 44 49 50 54 63 70 74 69 57 50 45 37 31 31 31 29 21 11 5 2 0 0 0 0 0 0 0 0 0 0 0 0
0 0 0 0 0 0 0 0 0 0 2 7 16 24 28 31 40 52 62 66 68 70 74 78 75 67 62 55 43 36 36 39 38 29 18 8 3 1 0 0 0 0 0 0 0 0 0 0 0
0 0 0 0 0 0 0 0 0 1 3 7 15 24 32 39 49 61 71 76 76 75 76 79 79 78 76 68 54 42 39 42 41 34 24 15 7 3 1 1 1 0 0 0 0 0 0 0 0
0 0 0 0 0 0 0 0 0 1 2 7 17 29 40 49 57 64 71 75 75 76 78 79 81 83 84 79 68 56 50 49 45 38 31 22 12 5 2 2 1 0 0 0 0 0 0 0 0
0 0 0 0 0 0 0 0 0 0 2 6 17 31 44 53 58 61 64 68 72 75 78 79 79 81 83 82 77 68 62 59 52 43 37 27 15 7 3 2 2 1 1 1 0 0 0 0 0
0 0 0 0 0 0 0 0 0 1 3 8 16 29 42 51 54 57 60 63 68 72 74 74 71 70 72 75 74 68 64 61 53 45 40 31 19 10 5 3 3 3 2 1 0 0 0 0 0
0 0 0 0 0 0 0 0 0 2 5 10 18 29 40 47 49 54 60 63 67 69 68 63 56 52 54 60 63 60 57 55 47 41 37 30 20 13 8 4 3 3 2 1 0 0 0 0 0
0 0 0 0 0 0 0 0 0 2 5 11 17 25 34 41 44 49 57 62 65 65 61 53 44 40 41 48 53 51 49 48 42 36 33 27 19 13 9 6 4 2 1 0 0 0 0 0 0
0 0 0 0 0 0 0 0 0 2 6 10 15 20 26 33 38 43 50 57 60 61 57 48 40 37 39 42 45 44 44 42 36 31 28 22 15 12 10 8 6 2 0 0 0 0 0 0 0
0 0 0 0 0 0 0 0 0 3 7 11 14 18 23 29 33 38 45 50 53 54 52 48 40 35 36 38 40 40 39 35 29 26 23 16 11 10 10 10 7 3 0 0 0 0 0 0 0
0 0 0 0 0 0 1 1 1 3 8 11 15 20 26 30 33 37 43 46 45 44 44 41 35 31 32 37 40 37 32 26 23 22 19 13 9 9 10 9 6 2 0 0 0 0 0 0 0
0 0 0 0 0 1 2 2 2 3 6 12 18 23 27 31 33 37 41 41 39 37 35 31 28 26 30 37 40 34 27 21 18 17 15 12 11 12 12 9 6 3 1 0 0 0 0 0 0
0 0 0 0 0 1 2 3 3 3 6 13 20 24 27 29 33 36 38 37 36 34 30 26 25 24 26 33 35 31 25 19 13 11 9 9 11 13 12 9 6 4 2 1 0 0 0 0 0
0 0 0 0 0 1 2 3 4 5 8 13 19 24 27 29 30 30 30 29 28 28 25 23 23 23 24 28 28 25 21 15 10 7 6 6 7 9 9 8 6 4 2 1 0 0 0 0 0
0 0 0 0 0 1 2 3 4 8 10 13 16 20 24 25 24 22 18 16 18 19 18 18 20 23 25 25 23 21 18 13 8 7 6 5 4 4 5 6 6 4 2 1 0 0 0 0 0
0 0 0 0 0 0 1 1 4 7 9 10 11 13 16 17 18 16 12 10 12 13 13 14 16 20 23 23 20 18 15 10 7 5 4 4 3 3 4 5 5 4 2 1 0 0 0 0 0
0 0 0 0 0 0 0 1 2 4 5 4 5 7 10 12 14 14 12 10 10 11 11 11 12 14 17 18 16 13 9 6 5 4 3 3 2 2 3 4 5 3 1 0 0 0 0 0 0
0 0 0 0 0 0 0 0 1 1 2 2 3 5 6 7 10 12 11 10 11 11 10 9 8 9 11 12 10 7 5 4 3 3 2 1 1 1 2 4 4 2 1 0 0 0 0 0 0
0 0 0 0 0 0 0 0 0 0 1 2 2 3 3 3 6 9 9 8 9 10 10 8 6 6 7 7 5 3 2 2 2 1 1 0 0 0 1 2 2 1 0 0 0 0 0 0 0
0 0 0 0 0 0 0 0 0 0 0 1 1 1 1 2 3 5 5 5 7 8 7 6 5 5 4 3 1 1 1 1 1 0 0 0 0 0 0 1 1 0 0 0 0 0 0 0 0
0 0 0 0 0 0 0 0 0 0 0 0 0 1 1 2 3 2 2 3 4 5 5 4 5 4 2 0 0 0 0 0 0 0 0 0 0 0 0 0 0 0 0 0 0 0 0 0 0
0 0 0 0 0 0 0 0 0 0 0 0 0 1 2 3 3 2 2 3 3 3 3 3 4 3 1 0 0 0 0 0 0 0 0 0 0 0 0 0 0 0 0 0 0 0 0 0 0
0 0 0 0 0 0 0 0 0 0 0 0 0 1 2 2 2 2 2 3 3 3 3 2 2 1 0 0 0 0 0 0 0 0 0 0 0 0 0 0 0 0 0 0 0 0 0 0 0
0 0 0 0 0 0 0 0 0 0 0 0 0 0 1 1 1 1 2 3 3 3 2 1 1 0 0 0 0 0 0 0 0 0 0 0 0 0 0 0 0 0 0 0 0 0 0 0 0

GEFSSGP_con_probscp_096.txt.gz
Probability
0 0 0 0 0 0 0 0 0 0 0 0 0 0 1 1 1 1 1 2 6 9 7 7 10 13 16 19 22 25 28 29 29 27 22 16 12 8 5 4 2 1 1 1 1 0 0 0 0
0 0 0 0 0 0 0 0 0 0 0 0 0 0 1 2 2 2 1 4 10 13 9 9 14 17 18 19 21 24 26 26 26 25 21 16 12 9 6 4 2 1 1 2 1 0 0 0 0
0 0 0 0 0 0 0 0 0 0 0 0 0 0 1 2 2 2 3 8 15 17 14 14 18 22 20 19 19 21 22 22 22 20 18 16 12 11 8 5 2 1 1 1 1 0 0 0 0
0 0 0 0 0 0 0 0 0 0 0 0 0 0 2 3 3 3 5 13 19 19 18 21 25 27 25 24 23 22 20 19 18 15 14 13 11 11 9 5 3 2 2 1 0 0 0 0 0
0 0 0 0 0 0 0 0 0 0 0 0 0 2 5 7 6 7 11 17 21 21 20 28 37 38 34 32 32 30 25 21 19 16 14 13 12 11 9 6 3 3 2 1 0 0 0 0 0
0 0 0 0 0 0 0 0 0 0 0 0 2 5 9 12 14 15 16 19 23 25 28 35 44 46 44 43 44 43 37 30 25 22 18 16 15 14 10 6 4 3 2 1 0 0 0 0 0
0 0 0 0 0 0 0 0 0 0 0 1 3 6 10 18 25 26 26 26 28 33 41 46 47 47 51 54 55 55 48 38 31 25 20 16 14 12 9 6 4 4 2 1 0 0 0 0 0
0 0 0 0 0 0 0 0 0 0 1 2 4 5 12 26 37 43 42 37 34 40 50 56 55 55 58 62 64 61 53 44 36 28 19 13 10 8 6 5 4 3 2 1 0 0 0 0 0
0 0 0 0 0 0 0 0 0 0 1 4 6 10 21 38 49 54 53 45 39 42 51 60 67 69 70 72 72 68 61 53 45 35 26 20 13 9 7 5 4 4 3 1 0 0 0 0 0
0 0 0 0 0 0 0 0 0 0 1 5 10 19 36 52 58 56 53 48 43 43 49 60 71 76 77 79 80 77 73 67 58 50 43 34 23 16 12 10 7 5 5 4 2 2 1 1 0
0 0 0 0 0 0 0 0 0 1 2 6 13 27 47 59 60 55 52 49 44 43 50 61 68 72 75 79 80 81 80 76 69 63 57 49 37 25 20 16 11 8 8 6 5 4 3 2 1
0 0 0 0 0 0 0 0 1 3 5 9 18 34 49 56 54 51 50 49 45 46 52 59 63 66 70 73 75 77 79 80 75 69 65 60 48 35 25 18 13 12 10 8 6 5 3 1 0
0 0 0 0 0 0 0 0 2 5 8 14 24 37 44 45 45 46 48 50 50 50 53 57 60 63 66 68 68 71 74 77 74 70 67 63 52 39 26 17 13 12 11 9 7 5 3 2 1
0 0 0 0 0 0 0 2 4 6 10 17 24 31 33 34 38 43 47 50 51 51 52 54 57 58 59 59 60 62 65 68 67 64 61 57 49 38 27 20 15 11 10 10 9 8 6 5 5
0 0 0 0 0 0 1 3 6 8 11 17 21 23 23 24 28 35 40 44 46 48 49 51 52 52 51 50 50 52 55 57 58 55 52 48 42 36 29 23 17 13 11 12 13 11 8 6 5
0 0 0 0 0 0 2 4 6 8 11 14 16 17 17 17 18 23 29 33 36 41 45 46 46 45 43 43 42 44 47 50 49 47 45 42 37 32 28 22 18 16 15 15 15 12 7 3 2
0 0 0 0 0 0 2 3 5 7 8 9 11 13 16 17 15 16 20 23 27 34 39 39 37 35 34 34 35 37 39 41 40 37 37 36 33 30 27 23 18 16 15 14 12 9 4 1 0
0 0 0 0 0 0 1 1 3 5 6 8 10 12 15 15 13 11 14 20 25 29 32 32 29 26 25 27 29 30 31 31 28 27 27 25 26 27 27 24 19 14 12 10 8 6 2 0 0
0 0 0 0 0 0 0 1 3 4 6 8 9 10 10 9 7 6 9 16 22 25 25 24 22 20 21 25 26 24 22 22 20 18 17 15 16 18 21 21 16 13 10 8 5 4 2 1 0
0 0 0 0 0 0 0 2 3 4 4 5 4 4 4 4 4 3 4 8 13 15 15 15 15 15 17 21 21 18 15 14 13 12 9 8 8 9 11 11 9 8 8 5 3 3 2 1 0
0 0 0 0 0 0 0 1 2 2 2 1 1 1 2 3 3 3 2 2 5 7 8 8 8 10 12 14 14 13 11 10 9 7 5 3 4 5 4 4 3 4 4 3 2 3 2 1 0
0 0 0 0 0 0 0 1 1 1 1 0 0 0 2 3 3 4 2 1 1 3 5 5 5 6 7 9 10 10 10 10 8 5 3 2 2 3 2 2 2 3 3 2 2 2 2 1 0
0 0 0 0 0 0 0 0 0 0 0 0 0 1 2 2 2 2 2 1 1 2 3 4 5 5 5 6 7 8 8 7 6 4 3 3 3 3 2 2 3 3 3 2 1 1 1 0 0
0 0 0 0 0 0 0 0 0 0 0 0 0 1 2 2 2 2 2 2 1 1 2 4 6 5 4 3 4 5 5 4 4 3 3 3 3 3 2 3 3 3 2 1 0 0 0 0 0
0 0 0 0 0 0 0 0 0 0 0 0 0 0 1 1 1 1 2 2 2 1 1 2 4 5 3 2 2 3 3 3 3 3 3 3 3 2 1 2 2 2 1 0 0 0 0 0 0
0 0 0 0 0 0 0 0 0 0 0 0 0 0 0 0 0 1 2 1 1 0 0 1 2 3 3 3 2 1 1 2 2 2 2 2 2 2 1 1 1 1 1 0 0 0 0 0 0
0 0 0 0 0 0 0 0 0 0 0 0 0 0 0 0 0 1 2 1 0 0 0 1 2 3 3 3 2 1 0 1 1 1 1 1 1 1 0 0 0 0 0 0 0 0 0 0 0
0 0 0 0 0 0 0 0 0 0 0 0 0 0 0 0 0 1 2 2 1 0 0 1 3 3 3 3 2 1 0 0 0 0 0 0 0 0 0 0 0 0 0 0 0 0 0 0 0
0 0 0 0 0 0 0 0 0 0 0 0 0 0 0 0 0 0 1 2 2 1 1 2 3 3 3 2 1 0 0 0 0 0 0 0 0 0 0 0 0 0 0 0 0 0 0 0 0
0 0 0 0 0 0 0 0 0 0 0 0 0 0 0 0 0 0 0 1 1 2 2 3 3 3 3 1 0 0 0 0 0 0 0 0 0 0 0 0 0 0 0 0 0 0 0 0 0

GEFSSGP_con_probscp_102.txt.gz
Probability
0 0 0 0 0 0 0 0 0 0 0 0 0 0 0 0 0 0 0 1 3 8 11 11 11 10 11 14 19 22 21 18 16 12 8 5 2 1 0 0 1 0 0 0 0 0 0 0 0
0 0 0 0 0 0 0 0 0 0 0 0 0 0 0 1 1 0 1 2 3 5 8 10 14 15 16 20 25 28 31 30 28 24 17 10 5 2 1 1 1 1 0 0 0 0 0 0 0
0 0 0 0 0 0 0 0 0 0 0 0 0 1 2 4 5 3 2 3 2 1 4 10 17 21 24 28 33 36 41 44 44 39 31 22 14 7 3 2 2 1 0 0 0 0 0 0 0
0 0 0 0 0 0 0 0 0 0 0 0 1 3 7 12 12 9 6 5 2 1 3 9 18 23 27 33 37 41 47 52 52 48 42 35 25 14 7 4 2 1 0 0 1 1 0 0 0
0 0 0 0 0 0 0 0 0 0 0 1 2 7 14 19 18 15 11 7 4 3 4 8 13 18 25 31 36 42 49 55 56 52 49 44 32 20 11 6 3 1 0 1 2 2 1 0 0
0 0 0 0 0 0 0 0 0 0 1 2 4 11 20 25 23 19 14 9 5 4 6 7 7 11 16 24 33 40 45 51 54 54 52 47 37 27 18 10 5 3 2 2 2 2 1 0 0
0 0 0 0 0 0 0 0 0 0 2 4 6 12 23 31 32 26 19 12 7 6 6 5 3 4 7 14 25 33 39 44 48 50 49 47 42 34 23 14 9 7 4 3 1 1 0 0 0
0 0 0 0 0 0 0 0 0 1 5 9 13 19 30 39 43 39 30 22 16 10 7 5 3 3 4 8 15 23 29 35 40 41 41 40 36 28 18 14 14 11 6 4 1 0 0 0 0
0 0 0 0 0 0 0 0 1 4 10 17 25 34 42 48 51 49 42 34 26 18 12 8 8 9 8 9 12 14 19 25 27 28 28 27 20 14 12 18 22 15 7 5 3 2 2 1 0
0 0 0 0 0 0 0 0 2 6 13 20 30 42 49 49 49 49 46 40 33 26 19 16 16 16 15 17 20 17 18 22 21 22 25 23 19 14 17 28 31 19 10 7 6 5 4 2 1
0 0 0 0 0 0 0 1 5 10 15 17 24 37 45 44 42 42 41 40 37 33 26 24 26 25 24 29 35 33 32 35 35 36 39 38 35 30 31 37 35 23 14 12 12 9 5 3 3
0 0 0 0 0 0 0 3 8 14 16 15 17 26 36 38 35 33 36 38 38 34 29 28 33 35 36 40 46 47 48 54 58 59 58 55 52 45 43 44 39 29 22 20 19 12 6 6 6
0 0 0 0 0 0 0 3 8 13 14 13 13 19 28 32 29 29 33 36 35 33 30 30 36 43 47 50 53 53 56 62 68 72 69 64 60 56 54 53 49 41 34 32 27 18 13 12 11
0 0 0 0 0 0 0 2 6 10 10 11 13 18 24 27 27 28 32 35 35 35 36 36 40 47 53 54 54 54 58 61 66 70 70 65 62 64 65 63 59 54 49 47 40 31 27 24 21
0 0 0 0 0 0 0 2 5 9 10 11 14 18 23 26 27 29 33 35 35 37 40 41 43 48 53 53 52 52 55 58 60 63 65 63 62 66 69 68 67 65 61 59 55 48 43 38 34
0 0 0 0 0 0 0 2 6 9 11 12 13 18 23 25 27 29 30 30 32 36 41 42 42 47 52 53 51 50 51 54 57 59 61 62 61 63 66 67 69 71 71 68 65 60 56 50 45
0 0 0 0 0 0 0 2 5 8 10 11 13 17 20 22 24 23 24 25 29 36 42 43 42 47 53 55 54 52 52 55 57 58 60 62 60 59 61 64 67 70 71 71 68 66 63 56 50
0 0 0 0 0 0 0 1 4 7 9 12 15 16 16 18 20 19 20 22 25 31 38 39 42 48 54 57 57 55 54 55 57 58 59 59 56 54 56 61 61 61 61 63 63 63 60 53 48
0 0 0 0 0 0 0 1 3 5 9 13 14 14 15 17 20 21 22 21 21 24 28 31 35 44 52 57 59 57 53 53 54 55 54 52 48 47 51 56 56 54 53 53 53 54 52 47 43
0 0 0 0 0 0 0 0 1 3 7 9 10 11 12 14 17 21 23 22 20 21 22 24 29 36 46 52 55 54 50 48 50 50 48 44 40 40 44 48 49 49 48 46 43 43 45 44 41
0 0 0 0 0 0 0 0 0 2 3 4 5 7 8 10 13 15 17 20 21 20 19 20 24 31 37 42 45 46 44 42 43 44 42 38 35 34 36 38 40 42 41 38 35 35 38 38 35
0 0 0 0 0 0 0 0 0 1 2 2 3 5 6 7 9 10 12 14 16 16 16 18 22 26 31 34 37 38 38 38 37 37 37 36 32 29 28 29 33 35 33 29 28 28 30 31 28
0 0 0 0 0 0 0 0 0 1 2 2 2 2 3 5 7 8 9 10 10 11 12 15 18 22 25 28 31 34 36 35 33 33 34 33 28 24 22 23 26 27 25 23 22 22 23 25 23
0 0 0 0 0 0 0 0 0 1 2 2 1 0 1 2 4 5 7 8 8 9 9 11 14 17 20 23 27 32 34 32 30 30 30 27 22 20 17 16 17 17 16 15 15 15 17 18 18
0 0 0 0 0 0 0 0 0 1 2 1 0 0 0 0 1 2 4 6 7 7 8 9 10 12 15 18 23 28 30 27 25 26 26 22 17 15 12 10 11 10 9 8 8 9 11 12 13
0 0 0 0 0 0 0 0 0 0 0 0 0 0 0 0 0 0 1 3 4 5 6 7 9 10 11 14 18 21 22 21 20 20 19 16 12 10 8 8 8 8 6 5 4 5 6 7 7
0 0 0 0 0 0 0 0 0 0 0 1 1 0 0 0 0 0 0 1 2 3 4 6 8 8 11 13 14 14 13 13 13 12 11 9 8 7 6 6 6 5 4 4 3 3 4 4 4
0 0 0 0 0 0 0 0 0 0 1 1 1 0 0 0 0 0 0 0 1 2 2 5 7 7 8 10 9 7 6 5 6 7 8 7 6 5 4 4 4 3 3 3 3 3 3 4 4
0 0 0 0 0 0 0 0 1 0 1 1 1 1 1 1 0 0 0 0 1 2 2 4 5 5 4 5 4 2 1 1 2 4 5 5 4 3 2 2 3 3 3 3 3 3 3 3 3
0 0 0 0 0 0 0 0 1 0 0 1 0 1 2 1 0 0 0 0 1 2 3 3 4 4 3 3 1 0 0 0 1 2 2 2 2 1 1 1 3 3 3 3 3 3 3 3 2

GEFSSGP_con_probscp_108.txt.gz
Probability
0 0 0 0 0 0 0 0 0 0 0 0 0 1 2 3 3 2 8 27 41 34 19 13 12 8 4 3 3 2 1 0 0 0 0 0 0 0 1 2 2 2 2 1 0 0 0 0 0
0 0 0 0 0 0 0 0 0 0 0 0 0 2 5 8 7 6 13 28 34 24 14 13 14 11 6 3 3 3 2 1 1 1 1 0 0 0 0 1 1 1 1 0 0 0 0 0 0
0 0 0 0 0 0 0 0 0 0 0 0 2 7 13 15 14 14 20 27 25 15 11 14 17 15 9 5 4 4 5 4 4 4 2 1 0 0 0 0 0 0 1 0 0 0 0 0 0
0 0 0 0 0 0 0 0 0 0 0 1 7 19 28 28 24 22 22 23 20 15 13 15 19 16 10 6 5 6 6 7 8 7 5 2 1 1 0 0 0 0 0 0 0 0 0 0 0
0 0 0 0 0 0 0 0 0 0 0 3 13 31 44 43 34 26 20 20 22 21 18 19 21 17 9 7 7 7 8 10 10 9 7 4 3 3 2 2 1 0 0 0 0 0 0 0 0
0 0 0 0 0 0 0 0 0 0 1 4 15 34 49 47 35 24 17 19 26 28 22 21 23 18 11 9 10 10 12 14 16 14 12 9 6 5 4 3 2 1 1 0 0 0 0 0 0
0 0 0 0 0 0 0 0 0 0 2 5 15 33 48 47 34 22 16 18 27 29 22 17 17 16 12 10 13 16 17 20 21 20 18 14 8 6 5 3 3 3 2 0 0 0 0 0 0
0 0 0 0 0 0 0 0 0 2 4 9 18 36 52 49 35 25 21 22 29 29 20 12 10 11 8 7 12 18 22 23 23 20 17 13 8 4 2 3 6 6 2 0 0 0 0 0 0
0 0 0 0 0 0 0 0 2 4 8 15 25 39 51 47 36 30 28 31 36 33 21 11 9 8 5 5 10 15 17 19 18 14 11 8 4 1 1 7 14 13 6 2 1 1 0 0 0
0 0 0 0 0 0 1 1 4 7 11 18 28 38 44 43 38 34 35 37 40 35 23 16 15 13 10 11 12 9 9 14 13 11 11 8 4 4 8 20 29 24 14 7 4 3 1 0 0
0 0 0 0 0 1 2 4 8 11 14 18 28 36 41 42 38 36 38 40 40 35 26 22 24 23 21 21 18 10 12 18 16 17 21 16 9 11 21 35 40 33 21 13 10 7 3 1 1
0 0 0 0 0 1 3 7 12 14 15 18 25 34 38 38 37 36 40 45 45 39 31 29 33 34 34 34 28 20 22 28 27 32 35 27 19 19 29 41 42 33 22 16 13 10 5 3 3
0 0 0 0 0 0 3 8 12 14 15 17 23 27 29 30 32 37 44 50 51 45 40 40 44 45 49 51 44 34 35 38 39 46 47 38 30 28 35 45 44 32 23 19 16 12 10 10 10
0 0 0 0 0 0 2 6 10 11 14 19 22 23 22 24 28 34 43 48 49 48 48 52 55 57 62 63 55 47 48 49 51 55 55 45 38 39 46 51 49 37 30 30 26 21 20 23 24
0 0 0 0 0 0 1 4 6 7 12 19 22 21 22 24 27 31 35 40 43 43 49 56 60 63 66 63 57 54 56 60 63 65 63 53 47 51 56 56 54 47 44 45 43 37 35 37 38
0 0 0 0 0 0 1 3 5 6 11 18 21 21 24 26 28 30 32 36 39 41 45 51 57 62 63 58 55 55 59 65 70 71 68 62 57 58 60 60 58 57 58 58 56 51 48 48 49
0 0 0 0 0 0 1 3 6 7 11 17 21 22 23 26 30 34 37 38 41 42 44 48 53 57 57 53 53 55 60 67 72 72 71 68 64 61 61 61 61 63 66 66 62 59 58 56 53
0 0 0 0 0 0 0 3 7 8 10 17 21 22 24 28 30 34 38 39 40 43 46 50 52 53 54 54 54 56 59 65 70 70 70 70 68 64 61 60 61 63 66 66 63 62 60 56 50
0 0 0 0 0 0 1 3 6 7 9 17 23 24 25 26 24 25 29 31 35 41 47 51 52 52 55 57 58 59 60 63 66 68 69 70 68 64 59 58 60 62 62 62 61 60 57 51 45
0 0 0 0 0 0 1 3 5 6 10 18 23 25 25 23 18 15 17 19 25 35 43 49 51 52 55 58 60 61 61 62 64 65 67 67 63 59 57 58 60 60 59 57 56 54 51 45 39
0 0 0 0 0 0 1 3 6 9 13 17 20 23 24 20 16 14 14 14 19 26 35 43 49 52 53 55 58 58 60 62 63 64 64 62 58 54 53 56 57 56 54 52 50 47 45 39 31
0 0 0 0 0 0 0 3 8 13 16 15 15 19 22 20 18 18 18 17 19 21 26 35 43 46 47 49 52 54 57 59 59 60 60 57 54 50 49 51 53 51 49 46 45 42 39 33 27
0 0 0 0 0 0 0 2 8 14 15 14 14 18 22 20 16 17 18 17 17 18 20 26 32 36 38 40 43 48 51 52 51 51 52 52 50 48 49 49 47 46 45 43 40 38 34 29 25
0 0 0 0 0 0 0 1 5 10 13 14 16 20 22 17 12 13 14 14 13 13 15 18 22 26 29 32 35 39 41 42 42 43 45 47 48 48 48 45 40 38 38 35 32 31 28 24 22
0 0 0 0 0 0 0 1 4 8 13 18 21 24 22 13 9 11 12 11 9 9 10 12 15 19 23 27 30 32 34 35 37 39 41 43 42 40 39 35 31 27 26 24 23 22 21 19 17
0 0 0 0 0 0 0 2 6 11 17 22 27 28 21 12 9 10 10 8 7 8 9 11 12 15 19 23 26 28 30 32 34 34 34 34 31 27 24 23 21 18 15 14 14 14 13 12 12
0 0 0 0 0 0 0 2 9 15 19 23 27 25 17 11 9 8 6 4 4 6 9 11 11 12 15 18 21 22 22 24 24 24 22 22 20 16 14 14 13 11 9 8 8 7 6 6 7
0 0 0 0 0 0 0 1 7 12 15 17 19 19 14 10 8 6 4 3 2 4 7 8 8 9 11 13 13 13 13 13 12 12 12 13 12 10 9 8 7 5 4 4 4 4 3 3 4
0 0 0 0 0 0 0 0 4 8 10 11 15 17 14 10 8 6 4 3 2 2 3 3 4 6 8 9 8 7 6 5 4 4 5 6 6 6 5 4 2 1 1 2 2 2 2 2 1
0 0 0 0 0 0 0 1 3 7 10 12 16 17 14 11 9 5 4 4 3 2 1 1 2 4 5 6 6 5 4 2 1 1 2 2 2 2 2 1 0 0 0 1 1 1 1 1 0

GEFSSGP_con_probscp_114.txt.gz
Probability
0 0 0 0 0 0 0 0 0 0 1 3 6 12 19 19 14 9 4 6 17 23 20 17 17 14 8 4 2 3 3 3 3 3 3 3 3 3 3 2 1 0 0 0 0 0 0 0 0
0 0 0 0 0 0 0 0 0 1 2 5 11 19 25 26 22 15 9 14 29 34 26 20 21 19 13 8 5 3 3 2 3 3 3 3 3 3 3 2 1 0 0 0 0 0 0 0 0
0 0 0 0 0 0 0 0 0 1 5 11 22 33 35 30 24 19 21 32 44 45 33 25 26 26 20 13 7 4 1 1 1 2 2 2 2 2 2 1 0 0 0 0 0 0 0 0 0
0 0 0 0 0 0 0 0 0 2 10 22 38 49 45 34 27 28 37 48 53 49 39 33 32 31 25 18 10 5 1 0 0 1 1 1 1 1 1 0 0 0 0 0 0 0 0 0 0
0 0 0 0 0 0 0 1 1 4 13 30 49 58 54 47 44 43 47 53 55 52 45 41 38 35 28 20 13 7 2 0 0 0 0 0 0 0 0 0 0 0 0 0 0 0 0 0 0
0 0 0 0 0 0 1 2 3 6 13 28 47 57 57 56 53 47 46 51 54 52 48 44 39 33 28 21 14 8 3 1 0 1 1 1 1 0 0 0 0 0 0 0 0 0 0 0 0
0 0 0 0 0 0 1 3 4 7 12 24 41 52 54 53 50 46 47 51 53 51 48 44 37 30 26 21 14 9 5 2 1 3 4 3 2 0 0 0 1 1 1 0 0 0 0 0 0
0 0 0 0 0 1 2 3 5 9 15 25 38 47 49 48 50 52 52 49 49 48 47 46 39 30 25 21 15 11 8 5 3 3 3 2 1 0 0 0 1 2 1 1 1 1 0 0 0
0 0 0 0 1 2 3 4 7 13 21 31 39 44 47 48 52 54 50 45 42 42 44 46 41 32 25 22 18 13 9 5 2 2 2 1 1 1 0 1 1 2 2 2 2 1 0 0 0
0 0 0 0 1 1 2 4 9 16 23 30 37 43 47 47 47 46 42 39 38 37 37 38 36 33 27 23 19 15 9 4 2 2 2 2 2 1 1 1 2 2 2 1 2 2 1 0 0
0 0 0 0 1 1 1 5 10 14 18 23 32 41 44 41 37 35 33 33 33 30 28 27 26 26 25 22 18 15 9 4 3 3 3 3 3 1 0 1 2 4 3 1 2 3 1 0 0
0 0 0 1 1 2 4 6 9 11 14 20 30 39 41 37 31 28 28 27 26 23 19 18 16 16 17 18 14 10 7 4 3 3 3 3 2 1 2 3 5 6 5 3 3 2 1 0 0
0 0 0 1 2 5 7 8 9 10 14 23 32 38 38 34 28 25 23 22 19 15 12 11 10 9 10 12 9 5 3 2 2 3 2 2 2 2 5 7 8 9 8 6 4 2 1 0 0
0 0 0 1 2 4 7 8 8 10 16 25 31 33 32 28 25 24 20 17 14 10 7 7 8 9 9 10 9 6 4 3 4 4 3 3 4 4 7 9 9 9 8 7 6 5 3 1 0
0 0 0 0 1 2 4 5 5 9 16 22 24 25 25 25 24 21 17 14 11 10 9 9 10 12 13 12 11 9 8 8 8 6 6 8 8 9 11 11 8 7 7 7 7 6 5 2 1
0 0 0 0 0 0 2 3 4 10 17 19 19 21 23 25 22 16 12 10 10 11 12 13 13 14 15 15 15 14 13 13 12 10 11 13 13 13 14 12 8 6 6 7 7 7 5 2 1
0 0 0 0 0 0 2 4 7 13 19 18 16 20 24 23 17 10 7 6 8 10 10 11 12 13 14 16 19 20 19 17 16 16 15 17 17 15 14 13 10 7 7 7 7 6 4 2 2
0 0 0 0 0 1 3 7 13 19 20 16 15 18 20 17 11 8 7 7 8 8 7 8 9 11 12 15 19 23 24 22 21 19 19 19 19 17 16 15 12 10 10 10 7 5 4 3 4
0 0 0 0 0 1 4 10 17 23 21 17 17 17 15 11 8 8 9 9 9 7 6 6 8 11 12 13 17 22 24 23 22 21 19 19 18 17 16 15 14 14 15 13 10 7 6 6 6
0 0 0 0 0 2 5 10 17 21 20 19 19 16 12 9 7 6 7 8 8 7 6 5 6 8 10 11 15 19 21 22 21 20 18 16 16 17 17 16 16 16 16 14 13 11 10 9 9
0 0 0 0 0 2 5 9 16 19 20 19 17 14 12 9 6 4 4 4 5 5 4 3 2 3 5 8 11 16 18 17 17 17 15 14 15 17 17 17 16 14 13 12 11 12 12 10 9
0 0 0 0 0 1 2 5 12 20 23 20 16 14 12 8 5 3 2 2 2 2 2 1 1 0 2 4 7 11 12 12 12 12 11 11 13 15 16 15 13 12 11 10 9 8 9 9 9
0 0 0 0 0 0 0 1 7 16 22 20 18 16 13 9 5 3 3 3 2 2 2 2 2 1 1 1 3 5 6 7 8 9 7 6 7 10 12 11 9 8 8 7 6 4 5 7 8
0 0 0 0 0 0 0 0 2 9 16 18 18 16 13 10 8 6 4 3 2 2 2 2 2 1 0 0 0 1 2 3 4 5 4 3 4 6 7 6 5 4 4 4 2 2 2 4 5
0 0 0 0 0 0 0 0 0 4 10 15 16 14 12 9 7 5 3 1 1 0 1 1 1 1 0 0 0 0 1 1 1 1 1 1 3 3 3 3 3 2 1 1 0 0 0 1 2
0 0 0 0 0 0 0 0 0 3 9 12 13 11 9 6 3 2 1 0 0 0 0 0 0 0 0 0 0 0 0 0 0 0 0 0 1 1 1 2 2 1 0 0 0 0 0 0 1
0 0 0 0 0 0 0 0 1 4 6 7 8 7 5 3 1 0 0 0 0 0 0 0 0 0 0 0 0 0 0 0 0 0 0 0 0 0 1 2 1 0 0 0 0 0 0 0 0
0 0 0 0 0 0 0 0 1 2 3 3 3 2 1 1 0 0 0 0 0 0 0 0 0 0 1 1 1 0 0 0 0 0 0 0 0 0 1 1 1 0 0 0 0 0 0 0 0
0 0 0 0 0 0 0 0 0 1 1 0 0 0 0 0 0 0 0 0 0 0 0 0 0 1 2 2 1 0 0 0 0 0 0 0 0 0 0 0 0 0 0 0 0 0 0 0 0
0 0 0 0 0 0 0 0 0 0 0 0 0 0 0 0 0 0 0 0 0 0 0 0 0 1 2 3 2 1 0 0 0 0 0 0 0 0 0 0 0 0 0 0 0 0 0 0 0

GEFSSGP_con_probscp_120.txt.gz
Probability
0 0 0 0 0 0 0 0 0 0 0 2 5 8 8 5 3 2 1 4 8 10 9 7 8 9 10 11 14 19 16 11 8 8 8 6 4 2 1 0 0 0 0 0 0 0 0 0 0
0 0 0 0 0 0 0 0 0 0 1 4 10 13 11 9 7 6 5 8 13 15 12 11 13 15 15 16 18 19 17 12 9 9 8 7 5 2 1 0 0 0 0 0 0 0 0 0 0
0 0 0 0 0 0 0 0 0 1 2 6 12 14 13 14 14 11 11 15 23 25 20 19 22 23 24 25 24 21 17 13 11 9 8 6 5 4 2 1 1 0 0 1 1 1 0 0 0
0 0 0 0 0 0 0 0 0 1 3 6 11 13 16 18 17 16 19 26 34 35 30 29 33 35 33 32 28 22 18 15 12 10 8 6 5 5 4 3 3 2 1 2 2 2 1 0 0
0 0 0 0 0 0 1 2 1 1 3 8 14 19 20 21 20 22 29 38 44 44 40 40 44 46 42 36 31 24 20 17 14 11 7 5 5 5 5 5 5 4 3 3 3 2 1 0 0
0 0 0 0 0 1 2 2 2 3 5 10 19 25 24 22 26 31 38 47 52 53 51 50 52 51 47 39 32 25 20 18 15 11 6 4 3 3 4 5 5 5 4 4 3 2 1 0 0
0 0 0 0 0 1 1 2 3 6 8 11 18 26 27 27 31 37 44 50 54 57 58 57 55 52 49 41 32 25 19 17 14 9 5 3 1 1 3 4 4 4 3 3 3 2 2 1 1
0 0 0 0 0 0 0 1 4 8 11 14 19 23 28 33 38 43 48 51 52 53 57 58 55 52 52 46 35 26 20 16 11 7 4 3 1 1 1 2 3 2 1 1 1 2 3 3 3
0 0 0 0 0 0 0 1 3 7 12 18 22 24 31 40 43 45 49 50 48 46 48 52 54 54 55 50 40 31 25 17 11 7 6 5 3 2 1 1 1 1 0 0 1 2 3 4 5
0 0 0 0 0 0 0 0 2 6 11 15 20 28 37 42 42 40 43 45 43 40 39 43 50 55 54 49 42 36 30 21 13 9 9 7 4 2 1 1 1 1 1 1 3 3 3 4 5
0 0 0 0 0 0 0 1 4 8 9 9 17 31 38 38 34 33 34 36 36 36 35 37 44 48 46 43 40 37 32 24 15 10 9 7 4 2 1 1 1 1 2 3 5 5 4 4 4
0 0 0 0 0 0 2 5 8 9 8 11 21 31 33 29 26 26 26 27 29 31 31 32 36 37 34 33 34 34 30 23 15 10 7 5 4 2 1 0 1 1 2 5 6 6 5 5 4
0 0 0 0 2 3 5 8 10 9 12 19 26 29 28 25 22 20 19 20 21 22 23 25 26 26 24 24 26 29 27 20 13 9 7 5 3 2 0 1 2 2 3 6 7 7 7 6 5
0 0 0 1 4 7 8 10 11 11 17 24 26 25 24 22 20 17 15 15 13 12 13 16 18 17 17 19 21 24 23 16 10 8 7 5 3 1 1 1 2 2 4 6 7 7 7 6 5
0 0 0 1 4 6 7 9 10 13 19 24 22 18 18 18 17 15 14 12 10 9 9 10 11 10 10 13 16 17 16 12 8 7 6 3 1 1 1 1 1 2 3 5 6 5 5 4 4
0 0 0 1 2 2 3 5 7 11 16 17 14 12 13 14 14 13 12 10 10 9 8 8 7 5 6 9 10 9 9 7 6 5 4 2 1 1 1 0 1 2 3 3 4 4 4 3 3
0 0 0 0 1 1 2 3 5 9 11 10 9 10 12 12 12 11 8 6 6 6 6 5 5 4 5 8 8 6 5 5 4 4 4 3 3 2 1 1 1 2 2 1 2 4 3 3 3
0 0 0 0 1 2 4 6 8 9 9 6 7 9 10 10 9 6 4 2 2 2 3 3 3 4 6 8 8 6 4 4 4 4 3 3 3 3 2 2 2 2 1 0 1 2 2 3 4
0 0 0 0 1 3 5 9 12 11 7 5 6 8 7 6 5 2 0 0 0 0 1 2 2 3 4 6 6 6 4 3 3 2 2 1 1 1 1 2 2 1 0 0 0 1 2 3 3
0 0 0 0 1 3 7 12 14 12 6 5 7 7 5 3 2 0 0 0 0 0 0 1 1 1 2 3 3 3 2 1 1 1 0 0 0 0 0 1 1 1 0 1 1 2 2 3 2
0 0 0 0 1 3 7 11 13 10 7 7 7 6 4 2 1 1 1 1 0 0 0 0 0 0 1 1 1 1 1 0 0 0 0 0 0 0 0 0 0 0 0 1 2 3 4 4 3
0 0 0 0 0 1 3 6 8 6 5 5 5 6 5 4 3 2 1 0 0 0 1 1 1 0 0 0 1 1 0 0 0 0 0 0 0 0 0 0 0 0 0 1 1 2 3 4 4
0 0 0 0 0 0 1 2 3 2 1 2 3 5 6 6 6 3 1 0 0 1 1 1 1 0 0 0 0 0 0 0 0 0 0 0 0 0 0 0 0 0 0 0 0 0 1 2 3
0 0 0 0 0 0 0 1 1 0 0 0 3 6 7 7 5 3 1 0 1 2 2 1 0 0 0 0 0 0 0 0 0 0 0 0 0 0 0 0 0 0 0 0 0 0 0 0 1
0 0 0 0 0 0 0 0 0 0 0 0 3 7 8 6 3 1 0 0 1 1 1 0 0 0 0 0 0 0 0 0 0 0 0 0 0 0 0 0 0 0 0 0 0 0 0 0 0
0 0 0 0 0 0 0 0 0 0 0 0 3 7 8 5 1 0 0 0 0 0 0 0 0 0 0 0 0 0 0 0 0 0 0 0 0 0 0 0 0 0 0 0 0 0 0 0 0
0 0 0 0 0 0 0 0 0 0 0 0 2 5 5 3 1 0 0 0 0 0 0 0 0 0 0 0 0 0 0 0 0 0 0 0 0 0 0 0 0 0 0 0 0 0 0 0 0
0 0 0 0 0 0 0 0 0 0 0 0 2 3 3 2 1 0 0 0 0 0 0 0 0 0 0 0 0 0 0 0 0 0 0 0 0 0 0 0 0 0 0 0 0 0 0 0 0
0 0 0 0 0 0 0 0 0 0 0 0 1 1 1 1 0 0 0 0 0 0 0 0 0 0 0 0 0 0 0 0 0 0 0 0 0 0 0 0 0 0 0 0 0 0 0 0 0
0 0 0 0 0 0 0 0 0 0 0 0 1 0 0 0 0 0 0 0 0 0 0 0 0 0 0 0 0 0 0 0 0 0 0 0 0 0 0 0 0 0 0 0 0 0 0 0 0

GEFSSGP_con_probscp_126.txt.gz
Probability
0 0 0 0 0 0 0 0 0 0 0 0 0 1 2 2 1 0 0 1 2 3 2 1 0 1 4 11 17 19 16 12 8 4 1 0 0 0 0 0 0 0 0 0 0 0 0 0 0
0 0 0 0 0 0 0 0 0 0 0 0 1 3 4 3 1 0 1 1 2 2 1 0 1 2 7 16 23 25 22 16 10 6 2 0 0 0 0 0 0 0 0 0 0 0 0 0 0
0 0 0 0 0 0 0 0 0 0 0 1 3 5 6 5 3 2 3 3 2 1 1 1 3 5 12 21 29 32 28 21 13 9 5 2 0 0 0 0 0 0 0 0 0 0 0 0 0
0 0 0 0 0 0 0 0 0 0 1 1 3 6 7 6 5 6 6 6 5 3 2 3 5 8 15 25 32 33 31 25 17 11 8 4 2 1 0 0 0 0 0 0 0 0 0 0 0
0 0 0 0 0 0 0 0 0 1 3 3 4 7 8 8 8 8 7 7 8 7 7 9 10 11 16 25 31 32 31 28 22 15 9 5 3 2 1 0 0 0 0 0 0 0 0 0 0
0 0 0 0 0 0 0 1 1 3 4 4 5 8 10 9 10 11 9 7 8 11 14 16 14 13 16 23 28 31 32 32 30 23 13 7 4 2 1 0 0 0 0 0 0 0 0 0 0
0 0 0 0 0 0 1 2 3 3 4 4 5 8 9 12 15 17 15 12 12 16 21 21 17 14 16 21 27 31 34 36 36 31 20 10 5 2 1 1 1 1 0 0 0 0 0 0 0
0 0 0 0 0 0 1 2 4 4 5 7 8 9 14 23 28 28 26 22 19 20 23 22 19 16 16 20 25 29 32 35 36 32 22 12 5 1 0 1 3 2 1 0 0 0 0 0 0
0 0 0 0 0 0 0 2 4 5 8 12 15 18 27 38 39 38 36 31 27 25 23 21 19 17 17 21 24 26 28 29 29 24 16 8 3 0 1 3 4 3 1 1 0 0 0 0 0
0 0 0 0 0 0 1 2 3 5 10 16 20 25 36 42 40 37 37 36 35 32 26 22 20 19 20 25 28 28 28 28 25 20 14 8 4 2 3 5 5 3 2 1 0 0 0 1 1
0 0 0 0 0 0 1 2 3 6 12 17 19 26 34 35 31 30 33 36 36 34 28 23 21 21 24 31 35 34 35 34 29 24 20 13 9 6 5 6 5 3 3 2 1 1 2 3 4
0 0 1 1 1 1 1 2 5 10 16 18 20 25 27 25 22 22 27 31 31 29 25 23 23 24 28 34 38 38 39 39 36 33 26 18 13 9 7 7 6 5 5 4 3 3 4 5 6
0 1 2 2 2 1 1 3 7 13 18 19 21 22 20 17 15 16 19 22 22 21 22 24 26 27 29 33 34 34 37 38 38 36 29 20 14 11 9 9 8 7 7 6 4 4 5 5 6
0 1 2 3 3 2 2 5 9 14 16 17 18 18 16 14 12 11 11 12 13 14 17 23 28 29 28 28 28 29 30 32 34 35 31 24 18 15 14 13 11 9 9 7 5 4 5 5 5
0 0 1 2 2 1 3 7 10 13 15 17 18 18 17 13 10 8 7 6 7 9 12 17 22 25 25 24 24 25 24 26 29 31 31 27 22 20 20 19 16 15 13 11 8 7 7 6 5
0 0 0 1 1 1 2 6 9 11 15 20 22 21 18 14 11 10 7 6 7 8 10 13 16 20 22 23 23 22 21 23 28 30 30 28 24 22 24 25 23 20 16 14 13 12 11 8 6
0 0 0 0 0 0 1 5 9 10 14 22 25 22 18 13 13 12 10 9 10 11 11 13 15 18 20 21 21 19 19 22 27 30 31 30 25 23 24 26 25 22 18 16 16 17 15 12 10
0 0 0 0 0 0 1 4 8 8 11 19 24 20 15 12 10 10 10 12 13 14 14 14 17 20 20 19 18 16 15 17 23 29 31 30 26 22 22 23 22 21 19 18 18 17 15 13 13
0 0 0 0 0 0 1 4 6 6 7 14 18 17 14 10 8 7 9 11 14 16 16 16 19 20 19 17 14 12 12 14 18 23 26 26 24 22 20 20 21 21 21 21 19 16 12 11 12
0 0 0 0 0 1 2 5 8 8 7 10 14 15 14 10 8 7 8 9 12 15 16 17 20 20 16 13 11 10 11 13 15 17 18 17 19 21 20 22 24 23 23 22 20 15 11 10 12
0 0 0 0 0 1 2 5 10 12 12 12 15 18 17 12 9 7 7 8 11 15 16 16 18 17 14 11 9 9 11 12 13 14 13 11 13 16 18 21 23 23 24 23 21 17 13 13 15
0 0 0 0 0 1 1 3 6 10 13 13 16 20 20 14 9 8 9 11 14 16 15 14 13 14 13 11 9 9 9 10 11 12 11 8 8 9 12 16 18 19 21 21 21 19 15 15 17
0 0 0 0 0 0 0 0 2 5 7 9 12 19 23 17 10 10 12 14 14 12 11 9 8 9 10 9 9 9 8 7 8 9 8 6 4 4 6 9 12 12 13 14 16 16 14 14 15
0 0 0 0 0 0 0 0 1 2 4 5 10 19 24 21 14 12 13 13 12 9 6 5 5 5 6 6 6 6 5 3 3 4 4 4 3 2 2 5 7 7 7 8 11 11 10 12 14
0 0 0 0 0 0 0 0 2 4 5 7 12 20 26 24 18 15 15 14 11 9 6 4 3 3 4 3 3 2 1 0 0 1 1 3 3 3 2 2 4 5 5 7 8 8 7 9 11
0 0 0 0 0 0 0 1 3 5 8 11 15 22 25 23 20 19 18 15 12 8 6 4 3 3 2 1 1 0 0 0 0 0 1 2 3 2 1 1 3 4 5 6 7 6 6 7 7
0 0 0 0 0 0 0 2 3 4 7 11 15 20 22 19 18 19 18 15 10 5 3 3 3 2 1 0 0 0 0 0 0 0 1 2 3 1 0 1 2 3 3 4 5 5 5 5 4
0 0 0 0 0 0 0 1 2 3 5 9 12 15 17 16 15 15 14 11 6 2 1 1 2 1 0 0 0 0 0 0 0 0 1 2 2 1 0 1 2 1 1 2 3 4 4 3 2
0 0 0 0 0 0 0 0 1 1 4 8 11 14 15 15 14 12 10 6 2 0 0 0 0 0 0 0 0 0 0 0 0 0 0 1 1 0 0 1 1 0 0 1 2 3 3 2 1
0 0 0 0 0 0 0 0 0 0 3 8 13 16 16 15 13 10 7 4 1 0 0 0 0 0 0 0 0 0 0 0 0 0 0 0 0 0 0 0 0 0 0 1 2 3 3 1 0

GEFSSGP_con_probscp_132.txt.gz
Probability
0 0 0 0 0 0 0 0 1 1 2 2 2 4 7 8 5 4 7 18 27 20 12 12 12 10 6 2 1 1 0 0 0 0 0 0 0 0 0 0 0 0 0 0 0 0 0 0 0
0 0 0 0 0 0 0 0 2 3 2 1 3 8 11 10 6 4 9 20 24 18 13 15 18 16 10 5 3 2 1 0 0 0 0 0 0 0 0 0 0 0 0 0 0 0 0 0 0
0 0 0 0 0 0 1 2 4 5 3 3 7 15 18 14 8 7 11 19 20 17 17 22 26 24 17 9 6 3 1 0 1 1 1 1 0 1 1 1 0 0 0 0 0 0 0 0 0
0 0 0 0 0 1 2 4 6 5 4 6 13 22 24 19 12 11 13 16 18 20 21 26 32 30 22 14 8 5 2 2 3 3 3 2 1 2 2 1 0 0 0 0 0 0 0 0 0
0 0 0 0 0 1 3 4 5 6 5 9 20 30 29 21 14 12 13 16 20 25 26 29 34 33 26 19 14 10 9 8 7 6 5 4 4 3 3 1 0 0 0 0 0 0 0 0 0
0 0 0 0 0 1 2 3 4 6 6 11 25 36 32 23 18 14 13 17 25 30 28 27 30 31 29 25 22 20 20 20 18 14 11 8 6 4 2 1 0 0 0 0 0 0 0 0 0
0 0 0 0 0 0 1 1 2 6 9 15 26 34 31 27 25 21 18 22 30 32 28 24 22 24 28 29 29 29 29 30 30 25 19 13 7 3 2 1 1 1 0 0 0 0 0 0 0
0 0 0 0 0 1 1 2 2 6 11 18 27 34 35 33 29 26 25 30 35 35 30 24 19 19 22 26 30 31 32 34 36 32 24 15 7 3 3 3 4 3 1 0 0 0 0 0 0
0 0 0 0 0 1 3 4 4 5 10 22 37 46 45 37 28 25 30 38 41 39 33 26 20 17 17 20 25 28 30 34 34 30 24 17 10 6 6 10 13 9 3 1 1 1 1 0 0
0 0 0 0 0 1 3 3 3 4 10 28 50 60 51 36 26 26 36 44 44 40 34 27 23 20 18 21 25 26 29 33 29 26 24 19 14 13 17 23 23 15 7 3 3 3 2 1 2
0 0 1 1 1 1 2 2 4 8 18 36 56 62 51 36 28 31 40 46 43 37 33 29 28 28 28 29 32 31 34 37 32 29 30 24 20 24 30 34 30 20 12 7 6 6 3 3 5
0 1 2 2 2 1 1 4 10 20 31 42 51 53 46 38 34 35 42 46 43 38 36 33 34 39 41 41 40 38 40 41 39 40 37 29 26 31 35 38 34 23 12 9 10 7 4 4 6
0 1 2 2 2 1 2 6 14 27 37 42 43 43 41 41 41 42 46 48 45 42 41 39 42 49 53 52 46 41 41 40 40 41 37 31 31 33 34 36 36 25 14 13 12 7 5 6 6
0 0 1 1 1 1 2 5 13 26 36 39 38 39 41 46 50 51 53 54 51 47 45 45 48 56 61 57 48 40 38 37 35 36 34 33 36 37 35 34 33 26 21 21 19 13 10 10 8
0 0 0 0 0 0 1 3 11 23 32 36 38 41 46 52 55 57 58 59 57 52 49 46 47 53 59 57 48 39 36 36 35 34 35 37 40 41 39 37 33 29 29 31 29 23 18 14 10
0 0 0 0 0 0 0 3 11 22 29 34 39 43 47 50 52 55 57 60 60 56 52 48 45 48 51 50 47 41 37 38 37 36 37 39 41 42 41 39 35 31 32 33 31 27 21 15 13
0 0 0 0 0 1 1 5 12 20 27 34 39 42 44 46 48 49 52 56 58 56 52 49 48 48 45 42 42 42 41 40 38 36 36 37 38 39 39 36 33 31 30 28 26 24 21 19 18
0 0 0 0 0 0 2 7 13 19 24 31 37 40 44 47 47 47 50 54 55 53 50 49 49 48 43 39 39 41 41 40 37 34 33 32 33 35 35 33 30 30 28 25 22 22 22 22 23
0 0 0 0 0 0 2 6 13 17 22 28 35 42 48 50 50 50 51 51 51 50 48 46 46 44 42 41 40 40 38 36 33 30 27 25 26 28 30 30 28 28 27 25 23 22 21 22 24
0 0 0 0 0 1 1 6 13 17 20 25 34 44 52 54 53 53 52 48 47 47 46 44 43 41 39 37 35 33 31 29 29 27 23 20 20 22 24 26 27 27 25 23 21 20 17 18 20
0 0 0 1 1 1 1 7 14 17 17 21 32 43 52 55 54 54 52 47 44 44 43 42 41 40 37 32 28 27 26 25 24 23 21 18 17 17 18 20 22 23 21 18 16 15 15 15 15
0 0 1 2 1 0 1 5 12 16 16 20 30 42 50 54 55 53 50 45 41 40 40 40 40 40 37 32 29 27 25 22 18 17 17 17 16 14 13 14 16 16 14 13 12 13 14 13 13
0 0 1 2 1 0 0 2 8 14 18 21 29 41 51 55 54 50 45 41 39 39 37 36 36 36 34 33 32 28 23 18 14 12 13 14 14 13 11 10 11 11 10 9 10 11 12 11 11
0 0 1 1 0 0 0 1 6 14 17 18 26 38 49 54 52 46 40 38 38 37 34 32 32 32 31 29 27 24 19 15 12 9 8 8 10 11 9 7 8 9 7 6 7 7 7 7 8
0 0 0 0 0 0 0 2 7 13 15 17 24 35 44 50 50 44 38 36 36 34 30 28 27 28 27 24 20 17 14 12 9 5 3 3 5 7 6 5 6 7 5 3 3 4 4 4 6
0 0 0 0 0 0 1 3 8 13 15 17 25 33 40 45 46 42 38 35 32 30 27 24 23 23 20 17 14 10 8 8 7 4 2 1 2 3 3 4 5 5 3 1 1 3 3 3 4
0 0 0 0 0 0 1 3 8 13 14 17 25 33 38 41 42 40 37 33 27 24 22 20 18 15 12 10 8 5 4 4 4 4 2 1 1 2 3 3 3 2 1 0 1 2 2 3 3
0 0 0 0 0 0 0 2 6 11 13 17 26 33 37 39 40 38 34 28 22 19 17 16 13 10 8 6 4 1 0 1 1 1 1 1 1 2 2 2 1 0 0 0 0 1 1 2 3
0 0 0 0 0 0 0 1 5 11 15 19 25 33 38 40 39 36 30 23 19 16 13 11 9 7 6 5 3 1 0 0 0 0 0 1 2 3 2 1 0 0 0 0 0 0 1 2 3
0 0 0 0 0 0 0 1 7 15 19 19 23 31 38 41 39 33 26 21 17 14 11 9 7 5 4 4 2 1 0 0 0 0 0 1 3 3 2 2 1 0 0 0 0 0 1 2 3

GEFSSGP_con_probscp_138.txt.gz
Probability
0 0 0 0 0 0 0 0 1 3 4 6 12 16 12 6 2 1 0 1 5 8 7 4 4 3 2 2 3 1 0 0 0 0 1 2 4 5 5 4 1 0 0 0 0 0 0 0 0
0 0 0 0 0 0 0 0 2 5 7 13 21 23 17 9 5 2 1 5 11 14 11 8 7 6 4 3 3 2 1 0 0 0 0 2 5 6 6 4 1 0 0 0 0 0 0 0 0
0 0 0 0 0 0 0 0 5 11 18 27 37 36 24 13 7 4 5 13 22 22 17 14 14 10 6 4 3 2 1 0 1 1 2 4 6 6 5 2 0 0 1 0 0 0 0 0 0
0 0 0 0 0 0 0 1 9 20 28 38 47 44 31 19 11 10 14 21 27 26 22 21 21 16 10 7 5 3 1 1 3 4 5 6 6 6 4 2 1 1 1 0 0 0 0 0 0
0 0 0 0 0 0 0 3 14 25 33 42 49 45 35 26 20 18 18 21 27 29 26 26 27 24 19 15 10 7 5 4 5 6 7 8 7 6 4 2 2 2 1 1 0 0 0 0 0
0 0 0 0 0 0 1 5 16 26 33 41 47 44 34 27 24 21 18 19 26 31 29 29 30 29 27 25 22 18 14 12 11 10 10 9 7 5 4 3 3 3 3 2 1 0 0 0 0
0 0 0 0 0 0 2 7 16 23 27 34 39 39 33 26 25 24 22 23 27 31 32 31 29 27 26 27 29 27 24 20 19 16 13 10 6 4 3 4 4 4 3 3 2 1 0 0 0
0 0 0 0 0 0 2 8 14 18 20 24 28 31 32 32 33 34 33 31 30 30 31 32 28 23 21 22 23 24 24 23 21 18 15 12 8 4 3 4 4 4 4 4 3 2 1 1 1
0 0 0 0 0 0 1 6 12 17 22 24 26 31 36 38 42 45 42 37 32 28 27 29 27 23 20 18 16 16 19 20 18 16 16 15 12 8 6 4 3 3 4 5 5 4 2 2 2
0 0 0 0 0 1 2 5 10 19 27 29 32 39 42 43 48 50 46 39 32 26 23 23 25 25 22 17 15 14 15 15 15 14 15 15 14 11 8 6 5 5 5 6 7 6 4 2 1
0 0 0 0 1 2 5 9 14 21 28 31 38 45 46 45 48 49 45 39 31 25 21 20 22 24 22 18 15 14 13 12 12 12 11 13 13 10 7 7 8 9 8 8 8 7 5 4 2
0 0 0 1 2 4 8 16 24 27 27 33 42 47 44 42 45 46 46 41 34 27 20 16 18 20 19 15 12 11 10 10 11 11 10 11 11 9 6 6 9 11 11 9 7 6 6 5 3
0 0 0 1 3 7 14 23 29 30 29 36 45 45 39 38 41 42 44 43 38 30 21 14 13 14 13 10 8 8 9 10 11 10 9 10 10 8 5 5 8 9 9 8 7 6 6 5 3
0 0 0 0 2 9 19 25 26 25 30 39 44 41 35 34 37 37 36 38 35 28 20 14 13 12 10 8 7 7 8 9 8 7 7 7 7 6 4 4 6 7 7 6 6 6 5 4 2
0 0 0 0 1 7 14 18 18 21 31 41 43 38 33 32 34 31 29 29 29 26 21 18 16 14 12 10 8 7 8 6 4 4 5 5 4 4 4 4 5 5 5 4 3 3 4 3 1
0 0 0 0 0 3 7 10 15 23 34 42 42 38 34 35 34 30 27 27 26 26 25 22 19 17 15 12 9 8 7 5 3 3 4 4 3 3 5 7 6 5 4 3 1 1 2 2 1
0 0 0 0 0 0 3 9 17 26 36 42 41 39 39 40 37 32 29 26 25 26 26 22 18 18 17 13 10 7 6 5 4 3 3 3 3 5 8 10 8 5 4 3 1 1 1 1 0
0 0 0 0 0 0 2 10 21 28 35 39 40 41 42 41 36 32 29 24 22 23 23 20 17 17 17 14 10 6 4 4 5 3 2 3 3 6 9 10 9 6 4 2 1 0 0 0 0
0 0 0 0 0 0 3 12 22 29 34 36 37 41 43 38 33 30 27 23 21 21 19 17 16 14 14 13 10 6 3 3 3 2 2 3 3 5 8 9 7 5 3 2 0 0 0 0 0
0 0 0 0 0 0 3 12 20 26 30 33 35 39 40 36 31 29 27 23 20 18 16 14 14 12 10 10 9 7 6 5 3 2 3 3 3 4 6 7 6 4 3 2 1 0 0 0 0
0 0 1 1 1 0 3 8 16 20 24 29 33 38 37 33 31 29 27 23 20 17 15 14 14 12 8 7 9 9 8 7 5 3 3 2 2 2 4 4 4 3 3 3 2 1 0 0 0
0 0 1 1 1 0 1 5 10 16 20 24 30 36 36 33 31 29 26 24 21 19 17 15 14 12 9 7 8 9 7 5 3 3 2 2 1 1 1 2 3 3 3 3 3 1 0 0 0
0 0 0 0 0 0 0 1 5 10 17 22 28 34 36 33 31 28 25 23 21 19 18 15 13 11 10 9 8 7 5 3 2 1 1 1 2 1 1 1 3 3 3 3 2 1 0 0 0
0 0 0 0 0 0 0 0 2 5 11 18 26 32 33 32 30 26 22 20 18 18 18 17 14 12 10 9 7 5 4 3 2 0 0 1 1 1 0 1 2 2 2 2 1 1 0 0 0
0 0 0 0 0 0 0 0 1 3 7 13 22 28 29 29 29 25 21 18 18 20 19 17 13 10 9 8 6 3 2 1 1 0 0 0 0 0 0 0 1 1 1 1 0 0 0 0 0
0 0 0 0 0 0 0 0 1 4 7 11 17 23 25 26 27 25 22 20 20 20 18 14 10 8 7 7 4 1 0 0 0 0 0 0 0 0 0 0 0 0 0 0 0 0 0 0 0
0 0 0 0 0 0 0 1 3 6 9 11 15 18 21 23 25 25 23 21 19 17 14 10 7 6 6 4 2 1 0 0 0 0 0 0 0 0 0 0 0 0 0 0 0 0 0 0 0
0 0 0 0 0 0 0 1 3 6 9 12 14 14 17 20 22 23 22 19 16 13 10 6 5 4 4 2 1 0 0 0 0 0 0 0 0 0 0 0 0 0 0 0 0 0 0 0 0
0 0 0 0 0 0 0 1 2 3 6 10 12 12 13 16 19 20 18 15 12 10 7 5 3 2 1 0 0 0 0 0 0 0 0 0 0 0 0 0 0 0 0 0 0 0 0 0 0
0 0 0 0 0 0 0 1 1 1 3 7 10 11 12 14 16 17 16 13 11 9 7 5 2 1 0 0 0 0 0 0 0 0 0 0 0 0 0 0 0 0 0 0 0 0 0 0 0

GEFSSGP_con_probscp_144.txt.gz
Probability
0 0 0 0 0 0 0 0 0 0 0 0 1 1 2 1 1 1 2 6 9 8 3 0 1 4 7 8 6 5 6 7 10 12 12 9 7 6 4 2 0 0 0 0 0 1 1 1 0
0 0 0 0 0 0 0 0 0 0 0 0 1 1 1 1 1 3 4 7 11 9 3 1 3 6 8 8 6 6 6 6 8 10 11 10 8 7 5 3 1 1 0 0 0 1 1 0 0
0 0 0 0 0 0 0 0 0 0 0 0 0 1 1 1 2 4 7 11 13 11 5 4 7 9 10 9 8 7 6 6 7 9 10 10 9 7 5 4 3 2 1 0 0 1 0 0 0
0 0 0 0 0 0 0 0 0 0 0 0 0 1 2 2 3 6 10 14 14 11 8 8 11 12 11 11 10 9 8 7 8 9 10 9 9 8 6 4 4 3 2 0 0 0 0 0 0
0 0 0 0 0 0 0 0 0 0 1 1 3 4 5 6 6 10 15 17 17 14 12 12 14 15 14 14 13 12 11 10 11 11 9 7 8 9 8 7 6 5 2 0 0 0 0 0 0
0 0 0 0 0 0 0 0 0 1 3 4 7 9 11 12 12 14 18 21 22 21 18 16 18 19 18 17 16 16 16 15 15 14 11 8 9 10 11 10 7 5 3 1 1 1 0 0 0
0 0 0 0 0 0 0 0 1 2 5 7 10 13 15 18 20 20 24 27 29 28 26 24 24 24 21 19 19 20 21 21 20 17 13 11 11 11 13 13 10 7 5 3 2 2 1 0 1
0 0 0 0 0 0 0 0 1 3 5 7 10 13 18 25 32 35 36 35 35 32 30 30 30 28 23 19 20 21 22 23 21 16 12 10 10 10 12 14 13 10 7 5 3 3 1 0 1
0 0 0 0 0 0 0 0 1 3 6 9 11 16 27 39 46 48 45 41 37 33 31 32 33 30 24 19 18 19 18 17 15 12 9 7 6 7 9 11 12 10 9 7 6 4 3 2 2
0 0 0 0 0 0 0 0 0 2 7 11 16 27 42 51 51 48 43 38 36 35 33 33 34 31 25 19 15 15 13 10 8 7 7 6 5 5 6 8 8 9 9 9 8 7 6 5 4
0 0 0 0 0 0 1 2 2 2 6 13 26 42 54 53 45 40 36 32 32 35 36 36 35 32 26 19 15 13 11 8 7 7 7 7 6 5 6 6 6 7 8 9 10 10 9 8 7
0 0 0 0 0 1 3 6 7 6 9 19 38 55 57 48 39 35 33 30 30 33 36 36 34 29 24 20 17 14 12 10 9 8 8 8 6 5 6 5 4 5 6 8 12 13 11 9 8
0 0 0 1 1 2 6 11 14 15 18 29 43 51 48 40 34 31 31 30 30 32 33 32 29 26 23 21 18 15 13 10 8 7 8 7 6 5 5 5 4 4 4 6 10 12 10 8 7
0 0 0 1 2 4 9 15 18 20 25 33 39 37 32 29 27 26 27 29 30 30 30 27 24 22 21 19 16 14 11 8 6 6 6 6 5 4 3 3 3 3 2 4 6 8 8 7 6
0 0 0 1 3 5 9 12 14 19 26 32 33 30 25 23 24 25 24 23 24 25 24 21 19 17 16 14 13 11 7 5 5 5 4 4 3 2 1 2 2 1 1 2 3 5 6 5 5
0 0 0 1 2 3 4 6 9 17 26 30 30 29 26 24 25 24 21 17 16 16 17 15 14 13 11 9 8 7 5 3 3 2 1 1 1 1 1 2 2 1 1 1 2 3 3 3 3
0 0 0 0 1 1 1 3 8 17 25 28 27 27 25 24 24 22 18 13 9 9 11 13 12 11 9 6 5 4 2 2 1 1 0 0 1 1 1 2 3 3 2 2 2 1 1 1 1
0 0 0 0 0 0 0 2 8 17 24 27 27 27 26 24 23 21 17 11 6 6 10 13 12 10 7 4 2 2 1 0 0 0 0 0 1 1 0 1 2 3 3 3 2 1 0 0 0
0 0 0 0 0 0 1 3 8 15 23 28 30 30 28 27 25 21 15 11 7 6 9 11 10 8 7 5 3 2 1 0 0 0 0 0 0 0 0 1 1 2 2 2 2 1 0 0 0
0 0 0 0 0 0 2 4 7 11 18 25 29 31 31 30 28 22 15 12 9 7 8 9 8 6 6 6 4 3 2 0 0 0 0 0 0 0 0 1 1 1 1 1 1 0 0 0 0
0 0 0 0 0 0 1 3 4 7 11 17 22 27 30 32 31 24 16 13 11 9 9 9 7 5 5 5 4 3 1 0 0 0 0 0 0 0 0 0 0 0 0 0 0 0 0 0 0
0 0 0 0 0 0 0 1 2 3 5 9 14 21 27 31 29 24 17 15 13 11 9 8 6 4 4 3 3 2 1 0 0 0 0 0 0 0 0 0 0 0 0 0 0 0 1 0 0
0 0 0 0 0 0 0 0 1 1 2 4 8 14 22 26 26 22 19 17 13 10 9 7 5 3 2 1 1 1 0 0 0 0 0 0 0 0 0 0 0 0 0 0 0 0 0 0 0
0 0 0 0 0 0 0 0 0 0 1 2 4 8 15 20 22 21 20 18 14 10 9 7 5 3 1 0 0 0 0 0 0 0 0 0 0 0 0 0 0 0 0 0 0 0 0 0 0
0 0 0 0 0 0 0 0 0 0 1 2 3 5 9 14 18 19 18 16 15 12 11 9 7 4 2 0 0 0 0 0 0 0 0 0 0 0 0 0 0 0 0 0 0 0 0 0 0
0 0 0 0 0 0 0 1 1 1 2 3 5 7 8 9 13 15 16 16 16 15 14 11 8 5 3 1 0 0 0 0 0 0 0 0 0 0 0 0 0 0 0 0 0 0 0 0 0
0 0 0 0 0 0 0 1 2 1 3 5 6 7 7 7 9 11 13 14 16 17 15 11 8 5 3 2 0 0 0 0 0 0 0 0 0 0 0 0 0 0 0 0 0 0 0 0 0
0 0 0 0 0 0 0 1 1 1 2 4 5 4 5 6 7 9 11 12 15 16 13 8 6 4 2 1 0 1 1 1 0 0 0 0 0 0 0 0 0 0 0 0 0 0 0 0 0
0 0 0 0 0 0 0 0 0 0 1 2 2 2 4 6 7 9 10 12 13 14 11 7 4 2 1 0 1 2 2 1 0 0 0 0 0 0 0 0 0 0 0 0 0 0 0 0 0
0 0 0 0 0 0 0 0 0 1 2 2 2 1 2 5 8 10 11 12 13 13 10 6 4 1 0 0 1 2 3 1 0 0 0 0 0 0 0 0 0 0 0 0 0 0 0 0 0

GEFSSGP_con_probscp_150.txt.gz
Probability
0 0 0 0 0 0 0 0 0 0 0 0 0 0 0 0 0 1 4 6 6 5 4 3 2 1 3 8 13 14 15 16 14 10 7 4 1 0 0 0 0 0 0 0 1 0 0 0 0
0 0 0 0 0 0 0 0 0 0 0 0 0 0 0 0 1 2 4 7 7 6 5 4 3 2 4 9 14 16 16 15 13 9 6 4 2 1 0 0 0 0 0 0 1 0 0 0 0
0 0 0 0 0 0 0 0 0 0 0 0 0 0 0 1 2 4 6 8 9 7 5 4 3 3 5 9 15 17 16 14 11 7 6 4 3 2 1 1 0 0 0 0 0 0 0 0 0
0 0 0 0 0 0 0 0 0 0 0 0 0 1 1 2 4 6 8 9 8 6 4 3 3 3 4 8 13 15 16 14 10 7 6 4 3 3 3 2 1 0 0 0 0 0 0 0 0
0 0 0 0 0 0 0 0 0 0 1 1 1 2 4 7 10 12 11 8 5 4 3 3 3 2 4 6 10 13 14 13 10 8 6 4 3 3 3 2 1 0 0 0 0 0 0 0 0
0 0 0 0 0 0 0 0 0 1 2 2 2 3 9 17 21 19 13 7 4 4 5 5 3 2 4 6 11 14 15 13 12 9 7 5 4 3 2 1 0 0 0 0 0 0 0 0 0
0 0 0 0 0 0 0 0 0 1 2 2 2 4 14 29 34 27 18 11 8 7 9 8 6 5 6 8 12 16 16 15 14 12 9 6 3 2 1 1 1 1 1 1 0 0 0 0 0
0 0 0 0 0 0 1 1 1 1 1 2 3 6 21 41 45 36 27 21 17 14 14 14 13 10 9 9 11 15 17 17 16 14 10 6 2 1 1 1 2 2 1 0 0 0 0 0 0
0 0 0 0 0 0 1 2 1 0 1 3 6 14 33 52 54 46 36 30 26 23 21 21 21 18 14 12 12 13 15 16 14 12 8 4 2 1 2 3 4 3 1 1 0 1 1 0 0
0 0 0 0 0 0 2 2 2 1 1 4 11 27 45 57 58 50 40 32 31 30 28 27 27 26 23 20 19 16 16 15 12 9 7 4 4 3 3 5 4 3 2 2 2 2 2 1 1
0 0 0 0 0 1 2 2 1 1 3 6 16 35 51 57 56 49 39 31 31 32 32 31 32 32 30 28 26 22 20 18 15 12 9 6 5 3 3 3 3 2 2 3 4 4 3 1 2
0 0 0 0 0 1 2 2 2 4 8 13 23 39 51 54 51 44 36 31 30 31 32 33 34 36 35 32 29 26 25 24 22 19 14 9 6 5 6 6 5 3 2 3 5 6 5 3 3
0 0 0 0 0 0 1 3 4 8 14 21 30 41 47 49 46 40 36 34 33 33 34 36 37 38 38 36 33 30 28 27 27 23 16 11 8 7 10 13 11 6 3 4 7 9 9 8 6
0 0 0 0 0 0 2 4 6 10 19 27 35 41 44 44 42 40 39 37 36 36 38 40 39 38 39 39 36 32 31 30 27 22 15 11 10 9 11 14 15 12 8 8 9 10 12 13 12
0 0 0 0 1 1 2 4 6 12 20 28 34 39 40 38 35 37 37 35 35 38 41 42 39 37 39 40 38 35 34 31 26 21 16 13 12 11 12 14 16 16 14 13 12 12 14 16 16
0 0 0 0 1 1 1 3 7 13 19 25 30 33 34 31 27 28 29 29 34 39 43 42 38 38 40 41 40 38 34 29 24 20 17 15 13 13 14 15 15 15 13 13 13 14 16 17 17
0 0 0 0 1 1 1 3 7 12 16 19 23 27 29 28 25 24 25 27 32 40 45 43 40 41 44 44 42 37 30 23 18 14 13 14 13 12 11 11 12 11 9 10 12 15 18 17 15
0 0 0 0 0 0 1 3 6 10 11 13 18 23 27 29 28 28 29 29 32 39 44 45 45 46 47 47 43 35 24 16 13 11 10 11 12 11 8 7 9 9 8 8 11 14 16 16 14
0 0 0 0 0 0 1 2 5 7 8 10 16 22 26 29 30 32 33 32 33 38 44 47 48 47 47 46 42 33 23 14 12 13 11 9 9 10 9 8 9 8 8 8 9 12 14 14 14
0 0 0 0 0 0 0 1 3 6 8 12 17 22 26 28 31 33 34 33 33 37 43 48 48 46 45 44 39 32 23 17 16 16 14 10 8 9 10 11 9 7 7 8 8 10 12 12 12
0 0 0 0 0 0 0 1 4 7 10 15 20 23 25 27 30 33 35 36 33 34 40 43 42 40 38 37 34 27 22 19 19 17 14 11 9 9 10 9 7 6 6 7 7 8 8 8 7
0 0 0 0 0 0 0 2 5 8 11 15 19 23 25 26 29 33 35 35 32 31 34 36 35 31 29 28 25 21 18 17 17 15 12 11 11 10 8 6 5 6 6 7 8 7 7 6 5
0 0 0 0 0 0 0 2 5 8 11 12 14 19 22 23 25 29 30 29 29 29 29 30 29 26 23 21 19 17 15 13 13 13 11 10 9 9 6 4 3 3 5 6 7 7 7 6 4
0 0 0 0 0 0 0 1 4 8 11 11 10 13 16 17 18 22 23 23 27 29 27 26 26 23 19 16 15 15 14 12 12 12 10 9 8 7 5 3 1 1 2 3 4 4 5 4 2
0 0 0 0 0 0 0 0 3 7 11 11 10 10 11 12 13 16 18 20 24 27 26 24 23 20 17 15 13 12 12 11 11 11 8 7 6 6 4 2 0 0 0 1 1 1 2 2 1
0 0 0 0 0 0 0 0 2 6 8 8 9 10 10 9 8 11 16 19 22 24 24 22 21 20 18 16 14 12 11 11 14 14 10 7 6 5 3 1 0 0 0 0 0 0 0 0 0
0 0 0 0 0 0 0 0 2 4 5 5 7 10 11 8 6 9 13 17 19 23 24 22 21 21 19 17 15 14 13 14 17 17 12 8 6 4 3 2 0 0 0 0 0 0 1 1 0
0 0 0 0 0 0 0 0 1 2 3 5 7 10 9 7 6 8 10 15 20 23 24 24 23 23 21 19 17 15 15 15 16 14 10 7 5 4 2 1 0 0 0 0 0 1 1 1 1
0 0 0 0 0 0 0 0 1 1 3 7 10 10 7 5 6 7 10 15 19 22 23 23 23 23 22 21 20 17 14 14 12 10 8 6 4 2 1 0 0 0 0 0 1 1 1 1 0
0 0 0 0 0 0 0 0 1 1 2 7 10 9 5 4 6 7 11 16 19 21 22 22 22 22 21 22 20 17 14 13 12 10 8 6 4 1 0 0 0 0 0 0 1 0 0 0 0

GEFSSGP_con_probscp_156.txt.gz
Probability
0 0 0 0 0 0 0 0 1 1 0 0 1 2 6 9 7 5 6 15 26 27 22 22 21 16 11 8 8 7 6 6 6 4 3 3 3 3 2 1 1 2 1 0 0 0 0 0 0
0 0 0 0 0 0 0 1 3 3 1 0 2 5 7 8 7 6 10 19 26 25 21 21 22 18 13 10 9 8 7 6 5 4 3 3 3 3 2 1 1 2 2 1 0 0 0 0 0
0 0 0 0 0 0 0 2 5 5 3 2 3 7 9 9 8 8 13 20 22 20 19 22 24 20 15 12 10 8 7 6 5 5 4 3 3 3 1 0 1 2 3 2 1 0 0 0 0
0 0 0 0 0 0 1 3 5 5 4 3 6 12 14 12 10 11 14 16 18 19 19 22 25 22 17 14 11 10 9 8 7 6 5 5 4 3 1 0 0 1 3 3 2 1 0 0 0
0 0 0 0 0 0 2 4 4 3 3 5 11 21 23 16 12 13 12 12 19 24 23 23 26 24 20 17 14 14 13 12 10 9 8 7 7 5 2 1 0 1 2 3 3 2 1 0 0
0 0 0 0 0 1 3 4 3 3 4 7 15 28 32 22 15 13 10 12 22 29 26 24 25 24 22 20 19 20 20 18 15 14 13 10 9 7 4 2 1 1 3 3 3 3 2 1 0
0 0 0 0 0 1 2 2 3 6 9 10 17 29 34 29 22 15 12 16 26 33 27 21 22 22 22 22 24 25 25 23 22 20 16 11 8 6 4 3 3 3 3 3 3 3 3 2 1
0 0 0 0 0 1 2 3 5 10 13 13 17 28 36 34 27 21 18 24 36 39 30 21 20 20 20 22 25 27 27 26 24 22 17 11 7 5 4 3 3 4 3 3 2 2 3 2 3
0 0 0 0 0 1 3 4 6 9 11 13 19 31 40 37 31 27 27 34 45 46 36 27 23 21 19 21 25 27 26 24 22 20 17 12 7 4 4 7 9 9 7 6 4 3 3 3 4
0 0 0 0 0 1 2 4 4 5 7 13 24 37 43 39 34 32 33 41 51 50 42 35 31 26 23 27 31 28 24 22 19 18 18 14 10 8 10 18 23 19 13 10 10 9 6 4 4
0 0 0 0 0 0 1 3 4 5 8 16 30 40 42 39 35 33 36 45 53 52 45 41 40 36 34 39 39 29 26 27 24 23 24 21 18 18 22 30 32 24 16 14 16 16 11 5 3
0 0 0 0 0 0 1 3 6 7 10 19 30 38 40 38 37 39 42 49 54 54 50 48 50 49 49 53 48 35 34 37 36 36 37 32 29 29 33 37 35 25 18 17 17 18 14 8 5
0 0 0 0 0 0 1 3 7 9 10 16 26 33 36 40 46 51 54 57 60 60 56 55 58 62 65 66 59 47 46 49 50 53 51 43 39 40 41 42 38 27 22 21 20 19 18 15 12
0 0 0 0 0 0 1 3 6 9 10 14 23 29 35 44 55 63 64 66 69 69 65 61 64 71 73 71 67 61 58 59 61 61 57 51 49 48 48 47 42 33 28 28 27 25 24 21 18
0 0 0 0 0 1 1 2 6 9 10 13 19 26 35 46 58 66 67 69 72 75 71 66 68 74 75 69 67 66 64 65 66 64 60 57 53 51 49 48 43 36 32 32 32 29 26 22 19
0 0 0 0 0 1 2 3 7 10 10 12 17 24 34 45 55 62 64 67 72 76 75 71 71 75 73 68 66 65 65 66 68 68 65 59 52 47 45 44 41 37 34 30 28 27 24 19 18
0 0 0 0 0 1 2 4 8 11 10 12 17 25 34 42 50 58 63 67 72 75 75 75 74 74 70 67 67 66 65 67 68 68 65 57 47 40 39 39 38 36 33 26 23 24 22 19 17
0 0 0 0 0 0 1 3 7 11 12 14 18 27 36 41 48 56 62 66 70 72 73 74 73 71 67 65 65 66 67 66 66 64 58 49 39 31 30 32 34 32 29 25 21 19 18 16 14
0 0 0 0 0 0 0 1 6 11 13 16 20 27 35 41 48 56 60 63 66 69 68 68 68 66 64 62 62 64 65 62 60 57 50 41 32 26 23 26 29 27 26 25 21 16 13 12 11
0 0 0 0 0 0 0 1 6 11 13 17 22 27 33 41 48 53 55 56 58 61 62 61 63 63 61 61 61 61 60 55 52 50 46 38 30 25 23 26 26 25 26 25 21 16 13 12 10
0 0 0 0 0 0 0 2 8 13 15 19 22 25 29 37 43 47 48 46 45 49 54 56 58 58 57 57 57 57 55 50 45 44 43 37 31 27 26 27 26 26 26 25 21 18 16 14 12
0 0 0 0 0 0 0 2 8 15 20 22 21 21 25 31 37 40 41 39 36 40 46 50 51 51 49 48 48 49 48 44 39 38 38 36 31 29 27 25 25 24 24 24 22 19 17 14 12
0 0 0 0 0 0 0 2 7 14 21 23 20 20 25 29 33 36 37 36 34 36 39 42 44 43 42 41 41 41 40 38 35 32 31 30 29 26 23 22 21 20 21 23 24 20 15 12 10
0 0 0 0 0 0 0 2 7 12 17 19 19 22 27 30 33 36 37 35 33 33 34 36 39 40 40 39 39 37 35 33 31 28 25 24 22 20 19 18 17 17 18 20 21 17 13 10 9
0 0 0 0 0 0 0 2 7 11 13 16 19 23 28 30 31 33 35 35 33 33 34 36 39 40 40 39 39 36 33 29 27 25 23 20 18 16 16 15 13 13 14 16 16 14 11 9 8
0 0 0 0 0 0 0 3 8 10 11 15 19 22 27 29 28 28 30 31 31 32 35 38 38 38 38 38 37 35 30 26 25 25 22 20 19 17 16 14 11 10 11 11 12 11 10 8 6
0 0 0 0 0 0 0 3 7 7 8 12 17 20 24 26 25 24 25 27 27 27 32 36 36 35 35 35 34 32 29 26 25 25 23 22 21 19 17 14 11 9 8 7 7 7 7 6 3
0 0 0 0 0 0 0 2 4 5 5 10 16 21 24 24 21 19 22 25 25 24 29 33 34 34 33 31 30 30 28 26 25 24 23 23 22 20 17 14 11 7 3 2 2 2 3 3 1
0 0 0 0 0 0 0 1 3 5 7 11 19 24 24 22 19 16 20 25 26 25 27 30 33 33 31 27 26 27 26 26 25 25 23 22 21 18 16 13 9 3 0 0 0 0 1 1 0
0 0 0 0 0 0 0 1 4 7 9 13 21 25 25 23 19 16 19 25 28 27 27 29 32 32 28 24 22 24 26 26 26 25 23 22 19 16 14 12 6 2 0 0 0 0 0 0 0

GEFSSGP_con_probscp_162.txt.gz
Probability
0 0 0 0 0 0 0 0 0 0 1 2 5 9 9 4 1 2 3 7 14 18 19 24 30 32 27 21 18 14 10 7 5 4 3 3 3 4 6 6 5 3 1 0 0 0 0 0 0
0 0 0 0 0 0 0 0 0 0 2 4 6 9 9 5 3 4 7 11 17 20 21 27 36 38 32 27 21 16 12 9 6 4 3 3 3 4 5 5 4 2 0 0 0 0 0 0 0
0 0 0 0 0 0 0 0 0 1 4 8 12 14 12 8 7 8 11 17 22 23 25 33 42 45 41 35 27 20 14 11 7 5 4 3 3 3 4 4 2 1 0 0 0 0 0 0 0
0 0 0 0 0 0 0 0 0 3 9 16 23 26 20 12 11 13 15 20 26 27 30 38 46 48 45 40 33 25 18 13 9 6 5 4 4 3 3 3 1 0 0 0 0 0 0 0 0
0 0 0 0 0 0 0 1 2 6 15 24 33 36 26 16 16 19 17 20 27 31 34 41 47 50 47 42 38 33 25 17 11 7 6 5 5 4 4 3 1 0 0 0 0 0 0 0 0
0 0 0 0 0 0 0 1 5 12 21 29 37 38 28 20 20 21 19 20 27 34 38 42 48 52 50 45 41 37 30 20 13 8 6 5 6 6 5 3 2 1 1 0 0 0 0 0 0
0 0 0 0 0 0 0 1 6 15 24 29 34 35 26 20 21 22 23 25 30 36 41 43 47 52 52 47 42 37 31 23 16 10 6 5 6 6 5 4 3 3 2 1 1 1 0 0 0
0 0 0 0 0 0 0 1 6 15 21 25 29 31 25 22 25 29 32 34 34 36 41 42 44 49 50 47 41 35 28 23 17 11 8 5 4 4 3 3 3 3 2 2 2 2 1 1 0
0 0 0 0 0 1 2 3 7 12 17 23 31 33 31 31 33 37 40 38 35 35 38 40 39 40 43 44 41 34 27 21 16 13 10 7 4 2 2 2 3 3 2 2 2 2 2 2 1
0 0 0 0 1 3 5 6 8 11 15 24 33 38 38 37 38 41 43 40 35 32 31 31 32 33 34 37 37 33 27 19 14 14 12 9 6 4 3 4 5 5 5 4 4 4 4 4 2
0 0 0 0 2 4 6 7 9 12 16 22 31 37 38 39 40 42 43 40 35 30 25 24 26 27 27 30 32 31 26 19 14 13 12 10 8 6 5 6 7 8 8 7 8 7 6 5 4
0 0 0 1 2 4 4 6 9 12 15 20 29 36 38 40 43 44 44 41 36 32 29 26 28 28 26 27 29 29 24 18 14 11 10 10 9 8 8 8 9 10 9 8 9 8 6 3 3
0 0 1 2 3 3 3 5 8 11 16 23 33 39 41 42 43 45 45 43 41 38 36 34 34 33 32 31 30 27 22 16 12 10 9 9 10 10 10 9 9 9 7 6 7 6 3 1 1
0 0 1 2 2 2 3 5 8 12 19 29 37 42 42 40 40 42 44 45 46 44 41 39 39 38 37 36 32 27 22 16 12 10 10 10 10 11 10 8 8 7 5 3 3 2 1 0 0
0 0 0 1 1 2 4 6 8 12 20 31 39 42 41 37 37 40 42 44 47 47 47 45 43 42 41 40 37 31 25 20 17 14 13 13 12 11 10 8 7 4 2 1 1 0 0 0 0
0 0 0 0 0 1 4 6 9 13 19 29 37 40 38 34 35 39 41 43 46 48 51 50 47 45 43 42 40 36 31 27 24 20 18 18 16 13 11 9 6 2 0 0 0 0 0 0 0
0 0 0 0 0 0 2 6 10 15 21 28 35 38 37 34 35 39 43 47 48 49 51 51 48 45 43 42 41 38 36 34 29 23 20 20 18 14 11 7 4 2 0 0 1 0 0 0 0
0 0 0 0 0 0 2 6 11 17 24 30 34 35 34 35 38 41 46 50 49 47 47 47 46 45 44 43 42 41 39 35 30 25 21 19 16 13 9 5 4 3 2 1 1 0 0 0 0
0 0 0 0 0 0 1 5 10 17 25 31 32 33 34 37 39 41 44 47 44 40 40 41 41 41 43 44 42 41 39 35 29 25 23 21 16 11 8 5 5 5 4 3 2 1 0 0 0
0 0 0 0 0 0 1 3 8 16 24 29 30 31 32 35 37 37 37 38 37 35 35 35 32 32 35 38 38 37 37 33 28 25 24 22 18 13 8 5 4 6 6 6 4 2 0 0 0
0 0 0 0 0 0 0 2 6 13 21 26 27 26 26 29 31 29 29 30 31 31 31 30 27 26 27 29 31 31 30 28 25 23 21 19 16 13 9 5 4 6 7 6 5 3 1 0 0
0 0 0 0 0 0 0 1 4 10 14 18 20 20 20 22 24 23 23 25 26 26 26 26 26 25 23 23 25 24 22 20 19 18 15 12 11 11 8 6 6 6 6 5 4 2 1 1 1
0 0 0 0 0 0 0 0 2 5 8 12 16 19 19 18 19 19 19 22 24 24 25 25 25 24 22 20 20 19 17 16 14 12 9 7 7 8 8 7 6 6 5 4 2 1 1 1 1
0 0 0 0 0 0 0 0 0 2 5 11 16 20 20 18 17 18 18 19 22 24 25 24 24 23 21 20 18 16 16 15 13 9 6 5 6 6 6 6 6 5 3 2 0 0 0 0 1
0 0 0 0 0 0 0 0 0 1 6 12 17 19 20 18 17 18 20 20 21 23 23 23 22 21 20 19 16 15 16 15 14 9 6 5 6 6 5 4 4 4 3 1 0 0 0 0 0
0 0 0 0 0 0 0 0 0 1 5 11 14 15 16 16 15 16 19 19 19 20 22 22 21 20 19 16 14 14 14 14 13 10 7 6 6 5 4 3 3 3 3 2 1 0 0 0 0
0 0 0 0 0 0 0 0 0 1 3 6 8 10 12 13 13 13 14 15 15 17 20 21 20 19 17 15 13 12 11 10 10 10 8 6 6 4 3 3 3 3 3 2 1 0 0 0 0
0 0 0 0 0 0 0 0 0 0 1 3 6 8 10 10 10 10 11 11 11 13 15 17 16 16 14 13 12 11 9 7 7 8 7 6 5 4 3 3 3 3 2 1 0 0 0 0 0
0 0 0 0 0 0 0 0 0 0 2 5 6 8 9 9 8 9 10 10 9 9 9 10 12 12 10 9 10 9 8 6 6 7 7 6 4 3 3 3 3 2 1 0 0 0 0 0 0
0 0 0 0 0 0 0 0 0 1 4 6 6 6 7 8 7 8 11 11 9 7 6 7 9 9 8 7 7 8 7 6 5 6 6 6 4 3 3 3 3 1 0 0 0 0 0 0 0

GEFSSGP_con_probscp_168.txt.gz
Probability
0 0 0 0 0 0 0 0 0 0 0 1 2 2 1 1 1 1 1 4 12 23 31 39 44 43 41 40 37 33 31 32 31 31 31 28 22 17 11 6 3 1 0 0 0 0 0 0 0
0 0 0 0 0 0 0 0 0 0 1 2 4 5 4 2 1 1 3 7 16 26 34 42 48 47 43 41 38 34 31 29 28 28 27 24 20 15 11 7 3 0 0 0 0 0 0 0 0
0 0 0 0 0 0 0 0 0 0 1 4 7 8 6 4 3 4 7 15 24 31 38 45 51 50 46 43 40 36 32 28 26 23 21 20 18 15 12 8 4 1 0 0 0 0 0 0 0
0 0 0 0 0 0 0 0 0 0 1 5 9 11 8 5 6 9 14 22 31 37 41 47 52 52 48 44 42 39 35 32 27 22 19 18 18 16 13 9 4 1 0 0 0 0 0 0 0
0 0 0 0 0 0 0 0 0 1 2 7 14 14 9 7 10 15 19 25 34 40 43 48 52 53 50 47 44 42 40 37 32 25 21 19 18 15 12 8 5 3 2 1 0 0 0 0 0
0 0 0 0 0 0 0 0 1 2 5 9 14 14 9 8 13 18 20 25 33 40 44 48 50 51 50 49 47 45 44 41 36 29 24 20 17 14 11 8 6 5 5 3 1 1 1 1 1
0 0 0 0 0 0 0 0 1 4 6 8 10 10 8 10 16 21 23 26 32 39 43 46 46 46 48 48 47 46 45 43 39 34 27 21 17 14 11 9 7 6 6 5 4 3 4 4 4
0 0 0 0 0 0 0 0 2 4 6 7 8 8 9 16 24 30 32 33 37 39 40 43 44 42 43 44 45 45 44 42 40 36 29 22 17 14 11 10 8 6 5 5 5 5 5 5 4
0 0 0 0 0 0 0 0 2 4 6 8 11 11 17 28 35 37 38 38 39 39 38 39 40 40 41 43 43 42 40 38 36 32 28 21 16 13 12 11 9 7 5 5 5 5 4 3 2
0 0 0 0 0 0 0 0 1 4 6 7 10 17 29 40 42 39 36 33 33 34 36 35 35 38 41 42 41 39 36 34 32 29 26 21 16 14 14 13 11 8 7 7 7 6 5 3 2
0 0 0 0 0 0 0 0 1 3 4 6 11 24 39 46 45 41 34 28 27 30 34 35 35 36 38 39 38 36 34 32 30 27 25 22 18 15 15 15 13 10 9 10 10 10 8 7 5
0 0 0 0 0 0 0 1 2 3 5 8 17 31 44 48 46 41 33 26 25 28 33 36 35 33 34 35 35 34 32 30 28 25 22 19 16 14 14 14 12 11 10 12 13 11 9 8 7
0 0 0 0 0 0 1 3 6 7 8 13 21 33 42 45 43 38 31 25 22 24 29 33 31 30 31 32 31 31 30 27 25 22 18 14 11 10 9 9 9 9 10 13 13 11 8 7 7
0 0 0 0 0 0 2 5 8 9 11 15 24 32 37 40 40 37 32 27 23 22 25 29 28 26 27 29 29 27 25 23 22 19 16 12 9 7 5 5 5 6 8 10 10 9 7 5 5
0 0 0 0 0 1 3 5 6 7 10 14 21 28 32 34 36 36 35 32 28 25 24 27 26 25 25 27 27 25 22 20 18 17 16 14 10 6 4 4 3 3 5 6 6 6 5 5 4
0 0 0 0 0 0 1 2 3 6 9 12 16 21 26 29 31 33 34 33 30 26 24 24 25 26 25 26 27 27 23 17 14 14 16 16 12 8 5 5 4 2 1 2 2 3 3 4 3
0 0 0 0 0 0 0 0 2 6 9 12 14 18 22 23 24 27 28 28 28 26 22 21 23 25 25 25 25 25 22 15 11 12 15 16 13 8 5 5 4 2 1 1 0 1 1 1 1
0 0 0 0 0 0 0 1 3 6 10 13 15 18 20 19 18 18 19 20 22 24 22 20 21 22 23 23 23 23 19 14 11 11 12 12 11 7 4 3 3 3 2 1 1 0 0 0 0
0 0 0 0 0 0 0 1 3 6 10 13 16 18 18 15 12 11 12 14 17 20 21 20 20 20 20 21 21 21 19 14 11 10 8 8 8 7 5 3 3 3 1 1 1 1 0 0 0
0 0 0 0 0 0 0 2 3 5 8 10 13 16 15 12 8 7 9 12 15 18 19 21 21 20 19 19 18 18 16 13 11 10 8 7 8 9 7 6 3 1 0 1 1 1 0 0 0
0 0 0 0 0 0 0 1 2 3 5 7 10 12 11 9 7 5 6 11 15 17 18 20 22 22 21 19 17 15 12 10 11 11 9 8 9 8 7 5 2 0 0 0 0 0 1 1 0
0 0 0 0 0 0 0 0 1 3 4 5 7 8 8 6 6 5 6 10 13 16 17 18 21 22 22 20 17 14 11 9 9 10 9 8 7 5 3 3 2 1 0 0 0 1 2 2 1
0 0 0 0 0 0 0 0 1 2 3 4 7 9 8 6 7 9 10 10 11 13 14 16 18 20 20 19 15 13 11 9 8 9 8 7 4 2 1 1 2 1 0 0 1 2 3 3 3
0 0 0 0 0 0 0 0 1 2 3 3 6 10 10 9 11 13 14 11 10 10 11 15 17 18 18 16 14 12 11 9 9 9 9 7 4 2 2 2 2 2 1 0 1 2 3 3 3
0 0 0 0 0 0 0 0 0 1 2 3 6 9 10 11 12 14 13 11 9 9 11 14 16 16 16 15 14 12 11 10 10 10 9 8 5 3 3 3 4 4 3 2 2 3 3 3 3
0 0 0 0 0 0 0 0 0 1 3 4 6 7 8 8 9 9 10 9 9 9 11 13 14 13 13 13 12 11 10 10 10 9 9 7 5 4 3 3 4 5 5 5 4 4 3 3 3
0 0 0 0 0 0 0 0 0 1 3 5 6 6 5 4 4 5 7 8 8 8 9 11 11 10 8 9 9 8 8 8 9 8 7 6 5 4 3 3 3 4 5 6 5 4 3 3 3
0 0 0 0 0 0 0 0 0 0 2 3 3 3 3 2 2 3 6 7 6 7 8 8 8 7 5 5 6 7 6 7 7 7 7 6 4 3 3 3 3 3 4 5 5 4 3 2 1
0 0 0 0 0 0 0 0 0 0 0 1 1 1 1 1 1 3 5 5 5 6 7 6 5 5 4 4 6 6 5 5 5 6 6 5 4 3 3 3 3 3 3 4 4 4 2 1 0
0 0 0 0 0 0 0 0 0 0 0 0 1 1 1 1 1 3 4 4 4 6 6 5 4 5 5 5 6 5 4 4 4 5 5 5 4 3 3 3 3 3 3 4 4 3 1 0 0

GEFSSGP_con_probscp_174.txt.gz
Probability
0 0 0 0 0 0 0 0 0 0 0 0 0 1 1 1 0 1 5 9 14 21 28 34 36 31 27 28 29 32 37 40 40 36 32 28 24 19 13 8 7 6 5 3 1 0 0 0 0
0 0 0 0 0 0 0 0 0 0 0 0 1 2 2 1 1 3 8 13 17 22 28 35 38 35 31 31 31 34 38 42 44 40 34 30 27 23 16 11 7 6 5 2 1 0 0 0 0
0 0 0 0 0 0 0 0 0 0 0 1 2 3 2 1 2 6 13 18 22 24 29 37 41 39 36 35 35 37 42 47 48 45 40 36 32 28 21 14 8 6 3 1 0 0 0 0 0
0 0 0 0 0 0 0 0 0 0 1 2 3 3 3 3 5 11 19 23 26 26 31 39 44 42 39 38 39 40 45 48 48 47 45 42 38 33 25 17 10 6 3 1 1 0 0 0 0
0 0 0 0 0 0 0 0 0 1 2 3 4 4 6 9 13 19 26 29 29 28 33 42 47 44 41 40 40 42 44 46 46 45 45 44 41 35 28 21 15 10 7 4 3 2 2 2 2
0 0 0 0 0 0 0 0 0 1 3 3 4 6 10 17 25 30 33 34 34 33 37 44 47 44 42 40 40 40 41 42 42 42 42 42 39 33 28 24 20 17 13 10 7 6 5 4 4
0 0 0 0 0 0 1 1 2 3 4 3 3 4 11 24 37 40 38 38 39 39 41 44 45 43 42 40 40 38 37 38 39 38 38 36 33 29 26 23 22 21 17 13 11 10 7 5 4
0 0 0 0 0 1 2 3 4 5 5 4 3 4 14 31 44 46 44 43 44 44 43 43 43 41 39 38 38 38 35 35 34 34 33 31 28 26 23 20 20 20 18 14 11 10 8 5 4
0 0 0 0 0 2 4 5 5 4 4 4 4 8 19 34 46 51 50 47 48 49 47 44 41 38 34 34 36 37 35 33 32 32 32 28 23 20 18 18 19 19 16 13 10 9 7 5 2
0 0 0 0 0 2 4 5 3 2 2 3 6 11 20 32 42 49 51 50 51 53 50 45 40 36 34 35 38 39 39 38 36 35 35 29 22 19 17 19 22 20 17 15 12 10 7 4 2
0 0 0 0 0 1 3 3 2 2 2 3 6 12 18 26 36 42 45 47 49 52 51 46 42 40 39 41 44 46 46 45 43 40 39 33 27 24 22 23 23 21 20 19 18 16 10 5 4
0 0 0 0 0 1 2 2 3 4 4 5 8 12 17 22 28 34 38 42 45 50 52 50 47 46 44 45 48 50 50 48 46 43 40 36 33 30 28 28 25 23 24 26 26 22 15 10 9
0 0 0 0 1 2 3 3 4 5 6 7 8 12 15 19 24 30 35 40 46 51 52 51 50 49 48 46 47 48 49 47 46 45 41 37 36 35 33 32 28 24 24 28 30 25 18 16 15
0 0 0 0 1 3 3 4 6 7 7 7 9 11 14 18 23 29 34 39 44 47 47 47 47 48 48 47 44 44 44 43 42 43 42 39 38 38 37 33 28 23 21 26 29 25 21 20 19
0 0 0 0 1 2 3 4 6 7 7 7 9 11 14 19 25 28 32 37 40 40 41 43 44 45 46 45 41 38 36 35 35 35 36 35 36 38 37 33 28 24 23 26 28 26 23 21 21
0 0 0 0 1 1 2 4 6 7 7 8 10 11 15 20 25 27 31 35 38 39 41 42 41 40 41 41 39 36 33 30 28 27 28 29 32 34 35 33 32 32 31 31 29 27 25 23 21
0 0 0 0 0 1 1 4 7 8 8 10 11 12 14 18 22 25 29 33 37 40 43 42 39 36 37 39 38 37 35 31 27 26 27 27 29 31 32 34 38 40 39 38 35 31 28 25 22
0 0 0 0 0 1 2 4 8 9 10 11 12 13 14 16 19 23 27 32 36 39 42 42 38 36 37 39 38 37 35 33 31 30 30 29 28 30 32 34 37 40 41 42 39 34 30 26 23
0 0 0 0 0 1 2 5 8 10 10 11 12 12 13 13 17 20 23 28 34 38 41 41 40 38 40 41 41 39 36 34 34 33 32 30 28 27 30 31 33 34 37 39 37 31 27 26 25
0 0 0 0 0 0 2 5 8 9 10 10 10 11 11 12 14 16 18 23 29 35 37 38 37 37 39 41 41 40 38 34 32 32 30 27 25 23 24 27 30 31 31 32 32 28 24 23 24
0 0 0 0 0 0 1 4 7 8 9 9 10 11 12 13 13 12 14 18 23 27 29 29 31 33 35 36 34 34 33 30 28 27 27 24 21 20 21 24 27 30 29 29 30 28 25 22 21
0 0 0 0 0 0 0 2 5 7 8 9 11 14 14 12 11 11 12 16 20 21 23 24 27 30 32 29 26 25 25 24 24 25 25 22 19 19 20 21 23 26 28 29 29 26 24 22 20
0 0 0 0 0 0 0 1 3 5 6 9 12 15 15 13 11 10 11 13 16 18 21 25 28 30 30 26 21 20 20 21 23 24 23 21 19 18 19 19 20 22 25 26 25 22 21 19 17
0 0 0 0 0 0 0 1 2 5 7 9 12 14 15 13 12 11 11 11 13 15 19 22 25 27 27 23 20 20 21 22 24 23 20 18 18 18 18 18 18 20 21 21 20 19 18 16 15
0 0 0 0 0 0 0 1 4 6 7 8 10 12 12 11 12 12 12 11 10 12 14 17 18 20 21 21 23 23 23 24 23 20 17 15 15 16 16 16 16 18 18 17 16 16 15 14 14
0 0 0 0 0 0 1 2 3 4 5 6 7 8 9 9 10 12 12 11 10 10 11 13 15 16 18 21 23 23 23 23 21 17 14 12 11 11 11 11 12 14 15 14 13 13 13 12 12
0 0 0 0 0 0 1 1 2 2 3 3 4 6 7 8 10 11 10 9 9 9 9 11 12 14 17 18 19 19 18 19 18 15 12 10 9 8 7 7 9 10 11 11 10 10 12 13 12
0 0 0 0 0 0 0 0 1 1 1 1 3 6 7 8 9 10 9 9 9 7 6 7 9 12 13 14 14 14 15 16 16 14 11 10 8 6 5 6 7 8 8 9 9 10 12 13 13
0 0 0 1 1 1 0 0 0 1 0 1 3 6 7 7 7 9 9 9 8 6 4 4 6 9 10 11 12 12 13 14 14 12 9 8 7 5 4 6 7 7 7 8 9 10 11 10 9
0 0 0 1 2 2 1 0 1 1 1 1 3 6 6 5 5 7 8 9 8 5 3 3 5 7 8 10 12 11 11 12 13 11 8 7 6 4 4 6 6 6 6 7 9 9 9 7 6

GEFSSGP_con_probscp_180.txt.gz
Probability
0 0 0 0 0 0 0 0 0 0 0 0 0 1 4 6 5 5 8 16 32 46 48 47 46 42 34 26 21 17 13 11 9 9 8 7 6 6 6 5 6 6 6 3 1 0 0 0 0
0 0 0 0 0 0 0 0 0 0 0 0 0 2 5 6 5 6 10 19 33 43 47 48 49 44 36 29 23 20 17 14 13 13 12 9 7 6 6 6 6 7 6 4 2 1 1 0 0
0 0 0 0 0 0 0 0 0 1 1 1 1 4 7 7 5 7 14 22 31 40 47 54 55 48 40 31 25 23 20 17 17 18 17 14 11 9 9 8 8 8 8 6 4 3 2 1 0
0 0 0 0 0 0 0 0 0 1 2 2 4 9 13 11 8 9 14 21 29 40 50 58 59 53 43 33 27 24 20 18 19 20 21 20 19 17 14 11 11 11 11 9 7 5 4 3 1
0 0 0 0 0 1 1 1 1 2 3 3 6 12 18 18 16 13 13 18 30 45 53 56 59 58 49 37 30 26 23 21 22 22 23 24 25 25 20 16 14 14 14 12 9 7 6 5 3
0 0 0 0 1 1 2 3 3 2 2 2 6 12 19 23 22 16 14 19 33 50 55 54 57 58 52 42 35 30 27 26 26 27 28 28 29 28 25 21 18 17 17 15 12 9 7 6 5
0 0 0 1 2 2 2 2 3 2 2 3 5 10 19 25 24 18 19 24 35 50 56 53 53 53 49 44 41 38 34 31 31 31 31 30 28 26 23 21 20 19 19 17 14 11 9 8 7
0 0 0 1 2 3 1 1 1 2 4 6 7 11 20 26 23 21 24 28 34 46 53 52 50 48 44 42 44 43 40 36 33 32 32 29 25 21 19 19 20 20 19 18 16 14 13 11 9
0 0 0 1 2 2 1 1 1 2 5 9 11 14 19 21 20 21 25 29 34 43 49 49 47 44 40 39 43 45 43 40 36 33 32 30 24 21 21 22 25 25 21 20 19 18 16 14 11
0 0 0 0 1 1 1 1 1 2 6 10 12 14 16 17 18 22 26 30 36 43 47 46 43 41 38 38 43 46 45 44 41 37 36 34 28 25 26 30 35 34 27 22 21 21 19 16 14
0 0 0 0 0 0 1 1 2 4 6 9 11 13 15 16 18 23 27 31 38 46 47 45 43 43 42 43 47 49 49 50 47 43 42 38 33 29 30 36 43 42 34 26 23 22 21 18 16
0 0 0 0 0 0 1 2 4 5 6 7 8 10 13 17 19 23 27 33 42 49 51 48 48 50 53 55 55 52 51 53 52 51 49 43 37 32 32 38 45 45 39 32 26 23 22 19 16
0 0 0 0 0 0 2 4 5 5 5 6 6 7 12 19 24 27 31 37 46 53 55 54 56 60 64 66 64 56 52 52 55 57 55 49 42 36 33 37 43 43 40 35 28 24 23 21 18
0 0 0 0 0 0 1 3 4 4 4 4 4 7 14 24 31 36 38 43 51 56 58 59 62 66 68 69 66 60 56 55 55 58 59 55 48 42 37 38 42 41 37 32 27 25 26 24 20
0 0 0 0 0 0 0 1 3 3 4 4 6 10 19 28 33 36 41 47 54 58 61 62 64 66 67 67 65 62 59 58 58 58 59 56 52 48 43 42 44 42 35 28 25 26 28 25 20
0 0 0 0 1 0 0 1 3 4 4 7 10 15 24 30 30 31 37 46 54 59 63 65 65 66 66 64 63 61 59 58 58 58 56 53 51 50 47 44 45 44 36 28 25 26 27 24 20
0 0 0 0 0 0 0 1 3 4 5 9 14 19 26 30 29 29 35 44 52 58 62 64 64 63 63 61 61 60 56 52 53 54 53 50 49 48 46 44 43 43 38 31 27 27 27 25 22
0 0 0 0 0 0 1 2 3 4 4 8 14 22 26 28 28 31 37 45 51 56 59 60 60 60 59 59 60 58 53 48 46 47 49 47 45 43 43 42 40 40 38 34 31 31 30 25 22
0 0 0 0 0 0 1 4 5 5 5 8 16 25 29 29 30 34 39 44 49 54 56 55 55 56 57 58 59 56 51 46 42 41 42 43 41 39 40 39 39 38 37 35 34 33 29 23 20
0 0 0 0 0 0 1 4 7 8 8 10 17 27 32 32 32 33 35 38 44 50 52 50 51 53 55 58 58 54 48 43 40 38 39 40 38 37 36 37 37 36 35 34 32 30 25 20 18
0 0 0 0 0 0 0 4 8 11 12 13 17 24 30 32 32 30 28 32 40 46 48 48 51 52 54 55 53 47 44 41 40 40 40 39 37 35 35 35 34 33 32 32 30 28 24 19 16
0 0 0 0 0 0 0 3 10 14 14 15 16 20 25 28 30 28 26 30 37 42 45 48 50 51 51 49 45 42 41 40 39 40 40 38 36 35 35 34 32 30 29 29 28 26 24 18 14
0 0 0 0 0 0 0 3 10 14 15 14 13 16 21 26 28 27 26 29 35 38 41 45 47 47 45 42 40 38 36 35 34 35 36 35 35 34 33 30 27 26 25 25 25 24 21 17 15
0 0 0 0 0 0 0 3 7 11 13 12 11 14 20 23 24 24 24 28 32 35 37 38 39 38 36 35 35 33 31 29 29 30 31 31 31 31 28 24 21 21 21 21 21 20 18 15 14
0 0 0 0 0 0 0 3 6 9 11 10 10 14 17 18 18 18 20 24 27 30 32 31 29 29 29 29 29 28 26 24 24 24 24 24 24 24 23 20 17 17 17 16 17 17 15 12 11
0 0 0 0 0 0 0 2 6 9 9 8 9 12 14 15 15 15 16 18 21 25 27 25 23 24 25 25 23 22 21 20 18 17 16 16 15 16 17 16 15 13 12 12 12 13 12 10 9
0 0 0 0 0 0 0 2 6 9 9 8 8 9 11 12 13 14 14 16 18 21 22 20 19 20 21 20 18 16 16 17 15 13 12 12 11 12 13 12 11 9 8 7 8 10 11 10 9
0 0 0 0 0 0 0 1 5 9 8 6 6 8 9 10 11 12 12 14 17 18 17 15 14 17 16 15 14 13 13 14 15 14 12 11 11 11 10 8 6 6 5 4 5 8 9 9 9
0 0 0 1 1 1 1 2 4 6 4 3 4 7 9 9 10 10 10 11 13 14 12 10 9 11 11 10 11 11 9 10 13 14 11 9 8 7 6 4 3 4 4 3 4 6 7 8 8
0 0 0 1 2 2 2 2 3 3 2 1 3 7 10 10 9 9 9 10 10 10 9 7 5 6 9 9 9 9 8 8 11 12 10 8 6 4 2 2 3 4 4 3 4 5 6 7 7

GEFSSGP_con_probscp_186.txt.gz
Probability
0 0 0 0 0 0 0 0 0 0 1 3 6 7 7 6 5 5 6 13 25 33 36 43 52 55 50 43 39 34 28 22 17 12 11 15 19 22 21 20 17 16 16 16 14 11 9 8 6
0 0 0 0 0 0 0 0 0 1 1 3 7 9 8 7 7 7 8 15 27 34 39 46 55 58 54 47 41 35 28 22 18 15 13 14 18 22 23 21 18 15 15 15 15 13 11 9 8
0 0 0 0 0 0 0 0 1 2 3 4 7 10 8 5 8 11 14 20 28 34 40 49 59 62 59 52 44 37 29 23 19 16 13 13 15 19 21 19 16 13 13 14 15 15 14 12 10
0 0 0 0 0 0 0 0 1 2 4 5 6 7 5 5 10 19 25 28 31 34 40 50 60 63 60 55 49 41 33 26 21 16 13 11 12 15 17 16 13 12 12 12 13 15 16 14 12
0 0 0 0 0 0 0 1 1 1 3 4 5 4 4 7 17 29 35 34 33 35 40 50 58 60 58 55 53 48 39 32 27 22 18 16 16 17 17 15 12 11 11 11 11 13 14 14 13
0 0 0 0 0 0 0 1 1 2 3 4 4 4 6 12 24 33 37 36 34 35 41 47 52 54 54 54 52 49 42 36 34 31 28 26 25 22 19 16 13 12 12 11 9 10 11 12 11
0 0 0 0 0 0 0 1 2 4 6 5 5 6 9 16 26 34 37 37 36 37 41 45 48 49 51 50 48 46 43 39 38 37 35 31 28 24 19 16 15 14 14 12 9 7 8 8 9
0 0 0 0 0 0 0 1 4 7 7 6 6 7 10 17 28 36 38 38 38 38 41 45 47 46 45 43 43 44 43 41 40 39 37 33 27 21 17 16 15 15 15 13 10 8 7 7 7
0 0 0 0 0 0 1 2 5 8 8 6 6 7 11 21 31 36 37 38 38 37 38 40 41 38 37 36 38 40 40 39 39 38 38 34 27 21 18 15 14 15 15 15 13 12 10 8 8
0 0 0 0 0 0 1 3 6 8 8 7 7 9 16 25 32 34 34 36 36 35 33 31 30 29 31 34 36 36 35 34 34 34 35 32 26 21 17 12 11 13 15 15 15 16 15 14 14
0 0 0 0 1 1 3 5 6 7 7 8 10 14 21 26 29 30 32 35 35 33 30 26 24 23 25 30 35 34 33 31 29 29 30 27 22 18 14 10 9 12 15 16 16 17 19 19 18
0 0 0 0 0 1 4 6 7 7 7 9 13 19 24 26 26 28 31 34 34 32 30 28 24 22 22 26 32 34 33 31 28 26 25 22 19 16 13 11 12 15 18 19 17 17 19 18 14
0 0 0 0 0 1 3 6 7 7 8 13 18 22 27 29 28 30 33 34 34 33 33 31 27 24 24 26 30 32 31 29 27 25 23 22 21 18 16 15 15 17 20 20 17 15 14 11 7
0 0 0 0 0 1 2 4 6 7 9 16 21 24 29 33 33 33 34 34 35 36 37 35 31 27 26 26 28 28 26 25 24 23 23 23 22 20 18 17 15 16 18 17 14 10 7 5 2
0 0 0 0 0 1 2 4 5 7 10 16 22 25 28 32 35 34 32 32 35 39 39 35 32 29 28 26 25 24 24 22 22 21 21 21 20 18 15 14 13 13 14 14 10 6 4 2 1
0 0 0 0 0 1 2 3 5 8 12 16 21 24 25 28 31 32 31 32 35 38 37 33 30 28 27 24 23 24 23 23 22 20 19 20 20 17 14 12 12 11 12 12 8 5 4 2 1
0 0 0 0 0 0 1 3 5 9 15 19 22 25 27 27 30 31 30 30 32 34 34 32 29 26 24 22 23 24 24 24 23 20 20 21 21 20 17 14 12 12 12 11 7 4 3 3 3
0 0 0 0 0 0 1 3 6 11 18 23 25 28 29 29 30 30 27 25 27 30 31 29 26 22 20 21 22 22 22 21 20 19 19 20 20 19 17 16 15 14 12 10 6 3 1 2 2
0 0 0 0 0 0 1 4 8 13 19 23 25 26 26 26 27 27 23 22 24 25 25 22 19 18 17 18 19 17 16 16 16 17 17 17 18 17 16 15 15 14 12 10 7 3 1 1 2
0 0 0 0 0 0 2 5 8 12 16 20 21 21 20 20 22 21 19 20 21 20 19 16 13 13 14 14 14 13 12 12 13 15 15 17 18 18 17 14 13 13 11 10 8 6 3 3 3
0 0 0 0 0 0 1 4 7 9 11 14 16 15 15 15 16 16 15 15 16 15 14 13 11 10 10 11 11 11 10 10 11 12 14 15 16 18 18 15 12 12 11 10 9 8 7 5 4
0 0 0 0 0 0 0 1 4 6 8 10 11 11 11 11 11 11 11 10 11 11 11 10 9 8 7 8 9 9 9 10 10 10 11 13 12 13 15 14 13 12 11 10 10 10 9 6 5
0 0 0 0 0 0 0 1 3 5 7 9 10 9 8 8 7 6 6 7 8 9 9 8 7 6 5 5 7 7 7 8 8 9 10 10 9 8 10 11 11 10 9 9 10 10 9 7 6
0 0 0 0 0 0 0 1 2 5 6 8 10 8 6 5 5 3 4 4 5 7 8 8 7 6 3 3 5 6 5 5 5 6 8 8 6 5 6 7 6 5 6 7 8 8 8 6 6
0 0 0 0 0 0 0 1 2 4 5 6 7 6 4 4 3 2 2 3 4 5 7 7 7 4 2 2 3 4 3 2 2 3 5 6 4 3 2 3 2 1 2 3 5 6 5 5 5
0 0 0 0 0 0 1 2 3 3 4 4 4 3 3 3 2 1 1 2 4 5 6 6 5 3 1 0 1 1 1 1 2 2 3 4 2 1 0 0 0 0 0 0 2 3 4 3 4
0 0 0 0 0 1 2 3 3 3 2 1 1 1 2 2 2 1 1 2 4 6 6 6 4 2 0 0 0 0 0 1 1 2 3 3 1 0 0 0 0 0 0 0 0 1 2 3 3
0 0 0 0 0 1 2 3 3 2 1 0 0 0 1 1 1 0 1 2 4 5 6 5 4 2 1 0 0 0 0 0 1 1 3 2 1 0 0 0 0 0 0 0 0 0 1 2 2
0 0 0 0 0 0 1 2 2 1 0 0 0 0 0 0 0 0 1 3 4 4 4 4 3 2 1 0 0 0 0 0 1 2 3 2 1 0 0 0 0 0 0 0 0 0 0 1 1
0 0 0 0 0 0 1 2 1 0 0 0 0 0 0 0 0 0 1 3 4 3 3 3 3 2 1 0 0 0 0 0 1 2 2 2 1 0 0 0 0 0 0 0 0 0 0 0 0

GEFSSGP_con_probscp_192.txt.gz
Probability
0 0 0 0 0 0 0 0 0 0 0 1 3 3 4 3 2 1 3 6 12 22 32 36 38 40 43 45 45 45 41 34 32 31 29 30 30 27 23 21 18 13 12 12 12 13 13 12 12
0 0 0 0 0 0 0 0 0 0 1 2 3 2 2 3 3 3 5 8 15 23 30 34 36 40 42 45 44 44 42 36 31 29 28 28 27 26 25 22 17 12 11 11 11 12 12 12 12
0 0 0 0 0 0 0 0 0 1 2 3 3 2 2 4 5 5 7 13 19 23 26 29 36 42 45 46 44 42 40 37 32 29 27 26 25 25 25 23 17 14 13 11 10 10 10 11 12
0 0 0 0 0 0 0 0 0 1 2 3 3 4 4 5 5 6 10 16 21 21 22 28 37 44 47 47 45 42 40 38 35 32 29 27 24 22 22 21 18 16 15 12 10 9 8 9 10
0 0 0 0 0 0 0 0 0 0 1 2 4 6 5 4 6 9 13 18 21 23 24 29 38 44 46 47 46 44 40 37 35 33 31 28 24 20 19 18 16 15 14 12 11 10 9 8 8
0 0 0 0 0 0 0 0 0 0 0 2 4 5 4 3 6 12 17 19 22 26 26 30 37 41 43 44 45 42 37 33 32 30 30 28 24 19 17 16 15 14 13 12 12 12 11 10 9
0 0 0 0 0 0 0 0 0 0 0 1 2 2 1 2 7 15 21 22 22 24 25 27 31 34 36 38 39 36 32 29 27 27 29 29 26 20 16 15 14 12 11 10 11 11 11 11 10
0 0 0 0 0 0 0 0 0 0 0 0 1 1 1 5 13 19 23 23 23 23 23 24 26 28 29 29 29 29 29 27 26 26 29 30 27 21 17 15 13 11 9 8 8 8 8 10 9
0 0 0 0 0 0 0 0 1 1 1 1 2 3 6 13 20 24 23 23 24 24 23 22 23 24 24 22 22 23 25 26 26 27 28 27 24 21 19 16 14 11 9 7 5 4 4 6 7
0 0 0 0 0 0 0 0 1 2 3 4 5 7 13 21 25 25 24 23 24 24 23 21 20 19 19 19 18 19 21 23 24 25 25 23 21 19 18 16 14 12 9 6 4 3 3 4 6
0 0 0 0 0 0 1 2 2 3 5 6 9 11 16 22 26 26 25 24 24 23 22 19 16 15 16 16 18 18 18 18 20 21 21 20 19 18 16 15 14 12 9 6 5 5 4 4 6
0 0 0 0 0 1 2 3 3 5 7 10 14 15 15 19 23 24 23 22 22 21 21 18 16 15 15 16 17 17 16 15 17 19 18 18 17 16 14 13 13 12 10 9 8 6 4 4 6
0 0 0 0 0 1 2 3 4 7 10 13 17 18 17 17 18 19 20 20 19 19 19 18 16 15 15 15 16 17 16 15 17 19 18 16 14 13 12 11 11 11 12 12 11 7 4 4 4
0 0 0 0 0 1 2 4 4 7 11 15 18 18 17 15 14 15 17 17 15 16 17 17 16 15 14 14 15 17 18 17 17 18 17 15 13 12 11 11 11 11 12 13 12 8 5 3 3
0 0 0 0 0 1 2 3 4 7 11 15 17 17 16 13 12 13 14 13 12 13 15 17 18 16 14 14 15 18 20 18 15 15 14 14 14 14 13 12 11 10 10 11 10 7 4 3 3
0 0 0 0 0 0 1 1 4 7 11 14 16 15 12 10 9 10 10 10 11 11 13 16 18 17 14 13 15 17 19 18 14 12 11 12 14 16 14 11 9 9 9 10 9 6 4 3 3
0 0 0 0 0 0 0 1 4 6 10 12 13 11 9 7 7 8 10 10 10 11 13 15 16 15 14 13 13 13 14 15 13 10 9 10 12 14 12 9 7 7 9 10 10 8 6 4 3
0 0 0 0 0 0 0 1 3 4 7 11 11 9 8 8 9 10 11 10 10 12 13 14 13 12 12 12 10 7 7 8 9 7 6 8 10 10 9 8 7 7 8 10 11 10 7 4 4
0 0 0 0 0 0 0 1 2 2 4 8 10 9 9 9 10 10 9 9 9 11 12 12 10 9 8 8 6 4 4 5 5 4 4 6 7 7 7 8 8 8 9 10 10 9 7 5 5
0 0 0 0 0 0 0 0 0 1 3 7 9 10 10 10 9 8 7 7 8 9 9 8 6 5 5 5 4 3 3 4 4 3 3 3 3 5 7 8 8 9 10 10 9 8 7 6 6
0 0 0 0 0 0 0 0 0 1 4 6 8 10 11 10 9 7 6 6 6 6 6 4 2 3 3 3 2 1 1 3 4 3 2 1 1 3 6 7 7 8 9 9 8 7 6 6 6
0 0 0 0 0 0 0 0 0 1 4 5 6 7 9 9 8 6 4 4 3 4 4 3 1 2 2 1 1 0 1 2 2 2 2 1 0 1 3 4 6 7 7 7 6 6 6 6 6
0 0 0 0 0 0 0 0 0 0 2 4 5 5 6 7 7 5 3 2 1 1 2 2 1 1 1 0 0 0 2 2 2 1 1 0 0 0 2 3 4 5 6 5 4 3 4 4 4
0 0 0 0 0 0 0 0 0 0 0 2 4 4 4 5 6 5 3 1 0 0 2 3 2 1 1 0 0 0 1 2 1 1 0 0 0 0 2 3 3 3 4 2 1 1 2 2 1
0 0 0 0 0 0 0 0 0 0 0 1 3 2 2 4 5 4 2 1 0 1 2 3 3 3 2 1 0 0 0 0 0 0 0 0 0 0 2 2 1 1 1 0 0 0 1 1 0
0 0 0 0 0 0 1 1 1 1 0 0 1 1 1 2 2 1 1 0 0 1 2 3 3 3 3 1 0 0 0 0 0 0 0 0 0 0 1 1 0 0 0 0 0 0 0 0 0
0 0 0 0 0 0 1 2 2 1 0 0 0 0 0 1 1 0 0 0 0 1 2 3 3 3 3 2 1 0 0 0 0 0 0 0 0 0 0 0 0 0 0 0 0 0 0 0 0
0 0 0 0 0 0 2 3 2 1 0 0 0 0 0 0 0 0 0 0 0 0 1 3 3 3 3 3 2 1 0 0 0 0 0 0 0 0 0 0 0 0 0 0 0 0 0 0 0
0 0 0 0 0 1 2 3 2 1 0 0 0 0 0 0 0 0 0 0 0 0 1 2 3 3 3 3 2 1 0 0 0 0 0 0 0 0 0 0 0 0 0 0 0 0 0 0 0
0 0 0 0 0 1 2 3 1 0 0 0 0 0 0 0 0 0 0 0 0 0 0 1 3 3 3 3 1 0 0 0 0 0 0 0 0 0 0 0 0 0 0 0 0 0 0 0 0